| time (UTC) | temp F | wind direction | speed MPH | gust MPH | rain 1hr in | rain 24hr in | rain mn in | humidity % | barometer mb |
| 20260831152004 | 64 | 270 | 4.0 | 0.0 | 0.00 | 0.06 | 0.00 | 78 | 1052.4 |
| 20260831151853 | 63 | 247 | 10.0 | 0.0 | 0.00 | 0.06 | 0.00 | 77 | 1052.6 |
| 20260831151738 | 63 | 270 | 6.0 | 0.0 | 0.00 | 0.06 | 0.00 | 76 | 1052.5 |
| 20260831151633 | 63 | 247 | 6.0 | 0.0 | 0.00 | 0.06 | 0.00 | 75 | 1052.5 |
| 20260831151512 | 64 | 225 | 9.0 | 0.0 | 0.00 | 0.06 | 0.00 | 74 | 1052.5 |
| 20260831151359 | 64 | 247 | 8.0 | 0.0 | 0.00 | 0.06 | 0.00 | 73 | 1052.5 |
| 20260831151245 | 64 | 247 | 8.0 | 0.0 | 0.00 | 0.06 | 0.00 | 73 | 1052.6 |
| 20260831151126 | 64 | 292 | 7.0 | 0.0 | 0.00 | 0.06 | 0.00 | 73 | 1052.7 |
| 20260831151022 | 65 | 225 | 9.0 | 0.0 | 0.00 | 0.06 | 0.00 | 73 | 1052.6 |
| 20260831150914 | 65 | 247 | 13.0 | 0.0 | 0.00 | 0.06 | 0.00 | 72 | 1052.6 |
| 20260831150800 | 65 | 247 | 15.0 | 0.0 | 0.00 | 0.06 | 0.00 | 72 | 1052.4 |
| 20260831150655 | 66 | 292 | 9.0 | 0.0 | 0.00 | 0.06 | 0.00 | 72 | 1052.5 |
| 20260831150541 | 66 | 270 | 6.0 | 0.0 | 0.00 | 0.06 | 0.00 | 71 | 1052.4 |
| 20260831150429 | 66 | 270 | 6.0 | 0.0 | 0.00 | 0.06 | 0.00 | 70 | 1052.5 |
| 20260831150315 | 67 | 247 | 11.0 | 0.0 | 0.00 | 0.06 | 0.00 | 68 | 1052.5 |
| 20260831150203 | 67 | 292 | 9.0 | 0.0 | 0.00 | 0.06 | 0.00 | 68 | 1052.5 |
| 20260831150057 | 67 | 247 | 8.0 | 0.0 | 0.00 | 0.06 | 0.00 | 69 | 1052.3 |
| 20260831145944 | 68 | 247 | 11.0 | 0.0 | 0.00 | 0.06 | 0.00 | 70 | 1052.3 |
| 20260831145834 | 68 | 270 | 6.0 | 0.0 | 0.00 | 0.06 | 0.00 | 70 | 1052.4 |
| 20260831145719 | 68 | 337 | 10.0 | 0.0 | 0.00 | 0.06 | 0.00 | 70 | 1052.3 |
| 20260831145613 | 68 | 292 | 6.0 | 0.0 | 0.00 | 0.06 | 0.00 | 70 | 1052.4 |
| 20260831145459 | 68 | 247 | 6.0 | 0.0 | 0.00 | 0.06 | 0.00 | 69 | 1052.3 |
| 20260831145339 | 68 | 270 | 6.0 | 0.0 | 0.00 | 0.06 | 0.00 | 69 | 1052.3 |
| 20260831145225 | 69 | 315 | 8.0 | 0.0 | 0.00 | 0.06 | 0.00 | 69 | 1052.3 |
| 20260831145106 | 69 | 337 | 10.0 | 0.0 | 0.00 | 0.06 | 0.00 | 69 | 1052.3 |
| 20260831144958 | 68 | 247 | 15.0 | 0.0 | 0.00 | 0.06 | 0.00 | 69 | 1052.4 |
| 20260831144839 | 68 | 270 | 9.0 | 0.0 | 0.00 | 0.06 | 0.00 | 69 | 1052.4 |
| 20260831144734 | 68 | 247 | 11.0 | 0.0 | 0.00 | 0.06 | 0.00 | 69 | 1052.3 |
| 20260831144620 | 68 | 270 | 4.0 | 0.0 | 0.00 | 0.06 | 0.00 | 69 | 1052.2 |
| 20260831144515 | 68 | 270 | 7.0 | 0.0 | 0.00 | 0.06 | 0.00 | 68 | 1052.2 |
| 20260831144353 | 68 | 315 | 3.0 | 0.0 | 0.00 | 0.06 | 0.00 | 68 | 1052.2 |
| 20260831144243 | 69 | 292 | 11.0 | 0.0 | 0.00 | 0.06 | 0.00 | 68 | 1052.2 |
| 20260831144136 | 69 | 270 | 13.0 | 0.0 | 0.00 | 0.06 | 0.00 | 68 | 1052.1 |
| 20260831144031 | 69 | 292 | 5.0 | 0.0 | 0.00 | 0.06 | 0.00 | 69 | 1052.3 |
| 20260831143918 | 69 | 270 | 6.0 | 0.0 | 0.00 | 0.06 | 0.00 | 69 | 1052.2 |
| 20260831143812 | 68 | 270 | 4.0 | 0.0 | 0.00 | 0.06 | 0.00 | 69 | 1052.2 |
| 20260831143651 | 68 | 337 | 4.0 | 0.0 | 0.00 | 0.06 | 0.00 | 69 | 1052.2 |
| 20260831143521 | 68 | 270 | 8.0 | 0.0 | 0.00 | 0.06 | 0.00 | 69 | 1052.1 |
| 20260831143408 | 68 | 270 | 13.0 | 0.0 | 0.00 | 0.06 | 0.00 | 70 | 1052.1 |
| 20260831143248 | 68 | 247 | 5.0 | 0.0 | 0.00 | 0.06 | 0.00 | 69 | 1052.1 |
| 20260831143136 | 69 | 270 | 6.0 | 0.0 | 0.00 | 0.06 | 0.00 | 69 | 1052.1 |
| 20260831143022 | 69 | 247 | 6.0 | 0.0 | 0.00 | 0.06 | 0.00 | 69 | 1052.0 |
| 20260831142917 | 69 | 247 | 5.0 | 0.0 | 0.00 | 0.06 | 0.00 | 68 | 1052.1 |
| 20260831142811 | 69 | 247 | 13.0 | 0.0 | 0.00 | 0.06 | 0.00 | 69 | 1052.1 |
| 20260831142700 | 69 | 270 | 13.0 | 0.0 | 0.00 | 0.06 | 0.00 | 69 | 1052.1 |
| 20260831142555 | 69 | 270 | 7.0 | 0.0 | 0.00 | 0.06 | 0.00 | 69 | 1052.0 |
| 20260831142448 | 69 | 270 | 5.0 | 0.0 | 0.00 | 0.06 | 0.00 | 70 | 1052.0 |
| 20260831142335 | 69 | 270 | 6.0 | 0.0 | 0.00 | 0.06 | 0.00 | 69 | 1052.1 |
| 20260831142230 | 69 | 225 | 6.0 | 0.0 | 0.00 | 0.06 | 0.00 | 69 | 1052.0 |
| 20260831142109 | 69 | 270 | 0.0 | 0.0 | 0.00 | 0.06 | 0.00 | 69 | 1052.0 |
| 20260831141955 | 69 | 292 | 6.0 | 0.0 | 0.00 | 0.06 | 0.00 | 68 | 1052.1 |
| 20260831141843 | 69 | 315 | 15.0 | 0.0 | 0.00 | 0.06 | 0.00 | 67 | 1052.1 |
| 20260831141737 | 69 | 270 | 10.0 | 0.0 | 0.00 | 0.06 | 0.00 | 67 | 1052.1 |
| 20260831141615 | 70 | 247 | 8.0 | 0.0 | 0.00 | 0.06 | 0.00 | 67 | 1052.1 |
| 20260831141455 | 70 | 270 | 11.0 | 0.0 | 0.00 | 0.06 | 0.00 | 68 | 1052.0 |
| 20260831141350 | 70 | 270 | 9.0 | 0.0 | 0.00 | 0.06 | 0.00 | 69 | 1052.1 |
| 20260831141245 | 70 | 202 | 4.0 | 0.0 | 0.00 | 0.06 | 0.00 | 69 | 1052.0 |
| 20260831141124 | 70 | 270 | 10.0 | 0.0 | 0.00 | 0.06 | 0.00 | 69 | 1052.1 |
| 20260831141010 | 70 | 202 | 7.0 | 0.0 | 0.00 | 0.06 | 0.00 | 69 | 1052.0 |
| 20260831140858 | 70 | 270 | 6.0 | 0.0 | 0.00 | 0.06 | 0.00 | 69 | 1052.1 |
| 20260831140745 | 70 | 225 | 6.0 | 0.0 | 0.00 | 0.06 | 0.00 | 68 | 1052.0 |
| 20260831140639 | 70 | 202 | 7.0 | 0.0 | 0.00 | 0.06 | 0.00 | 68 | 1052.0 |
| 20260831140526 | 70 | 247 | 7.0 | 0.0 | 0.00 | 0.06 | 0.00 | 68 | 1052.0 |
| 20260831140416 | 70 | 270 | 4.0 | 0.0 | 0.00 | 0.06 | 0.00 | 68 | 1052.0 |
| 20260831140308 | 70 | 225 | 7.0 | 0.0 | 0.00 | 0.06 | 0.00 | 67 | 1052.0 |
| 20260831140155 | 70 | 247 | 6.0 | 0.0 | 0.00 | 0.06 | 0.00 | 67 | 1052.0 |
| 20260831140050 | 70 | 247 | 6.0 | 0.0 | 0.00 | 0.06 | 0.00 | 67 | 1051.9 |
| 20260831135928 | 70 | 315 | 11.0 | 0.0 | 0.00 | 0.06 | 0.00 | 68 | 1051.9 |
| 20260831135815 | 70 | 315 | 0.0 | 0.0 | 0.00 | 0.06 | 0.00 | 68 | 1051.9 |
| 20260831135654 | 70 | 247 | 0.0 | 0.0 | 0.00 | 0.06 | 0.00 | 68 | 1051.9 |
| 20260831135534 | 70 | 270 | 4.0 | 0.0 | 0.00 | 0.06 | 0.00 | 67 | 1052.0 |
| 20260831135428 | 70 | 202 | 4.0 | 0.0 | 0.00 | 0.06 | 0.00 | 67 | 1051.9 |
| 20260831135314 | 70 | 270 | 8.0 | 0.0 | 0.00 | 0.06 | 0.00 | 68 | 1052.0 |
| 20260831135202 | 70 | 270 | 4.0 | 0.0 | 0.00 | 0.06 | 0.00 | 69 | 1052.1 |
| 20260831135049 | 69 | 225 | 3.0 | 0.0 | 0.00 | 0.06 | 0.00 | 68 | 1051.9 |
| 20260831134936 | 69 | 247 | 11.0 | 0.0 | 0.00 | 0.06 | 0.00 | 68 | 1052.0 |
| 20260831134822 | 69 | 180 | 6.0 | 0.0 | 0.00 | 0.06 | 0.00 | 68 | 1052.0 |
| 20260831134709 | 69 | 225 | 0.0 | 0.0 | 0.00 | 0.06 | 0.00 | 68 | 1051.9 |
| 20260831134557 | 69 | 225 | 2.0 | 0.0 | 0.00 | 0.06 | 0.00 | 68 | 1052.0 |
| 20260831134453 | 69 | 337 | 0.0 | 0.0 | 0.00 | 0.06 | 0.00 | 68 | 1051.9 |
| 20260831134338 | 69 | 202 | 7.0 | 0.0 | 0.00 | 0.06 | 0.00 | 68 | 1052.0 |
| 20260831134225 | 69 | 202 | 7.0 | 0.0 | 0.00 | 0.06 | 0.00 | 68 | 1052.1 |
| 20260831134121 | 69 | 225 | 7.0 | 0.0 | 0.00 | 0.06 | 0.00 | 67 | 1052.2 |
| 20260831134007 | 69 | 270 | 9.0 | 0.0 | 0.00 | 0.06 | 0.00 | 67 | 1052.1 |
| 20260831133846 | 69 | 270 | 12.0 | 0.0 | 0.00 | 0.06 | 0.00 | 67 | 1052.0 |
| 20260831133741 | 69 | 315 | 9.0 | 0.0 | 0.00 | 0.06 | 0.00 | 68 | 1052.1 |
| 20260831133636 | 69 | 247 | 6.0 | 0.0 | 0.00 | 0.06 | 0.00 | 68 | 1052.1 |
| 20260831133523 | 69 | 292 | 10.0 | 0.0 | 0.00 | 0.06 | 0.00 | 68 | 1052.0 |
| 20260831133416 | 69 | 270 | 10.0 | 0.0 | 0.00 | 0.06 | 0.00 | 68 | 1052.0 |
| 20260831133257 | 69 | 247 | 6.0 | 0.0 | 0.00 | 0.06 | 0.00 | 68 | 1052.1 |
| 20260831133151 | 69 | 270 | 6.0 | 0.0 | 0.00 | 0.06 | 0.00 | 68 | 1051.9 |
| 20260831133030 | 69 | 202 | 4.0 | 0.0 | 0.00 | 0.06 | 0.00 | 69 | 1051.9 |
| 20260831132925 | 69 | 202 | 6.0 | 0.0 | 0.00 | 0.06 | 0.00 | 69 | 1052.0 |
| 20260831132820 | 69 | 225 | 6.0 | 0.0 | 0.00 | 0.06 | 0.00 | 69 | 1051.9 |
| 20260831132716 | 69 | 225 | 6.0 | 0.0 | 0.00 | 0.06 | 0.00 | 69 | 1052.0 |
| 20260831132610 | 69 | 202 | 0.0 | 0.0 | 0.00 | 0.06 | 0.00 | 69 | 1051.9 |
| 20260831132505 | 68 | 270 | 9.0 | 0.0 | 0.00 | 0.06 | 0.00 | 69 | 1051.9 |
| 20260831132352 | 68 | 202 | 17.0 | 0.0 | 0.00 | 0.06 | 0.00 | 69 | 1051.9 |
| 20260831132240 | 68 | 270 | 7.0 | 0.0 | 0.00 | 0.06 | 0.00 | 69 | 1051.9 |
| 20260831132135 | 68 | 270 | 4.0 | 0.0 | 0.00 | 0.06 | 0.00 | 69 | 1051.9 |
| 20260831132029 | 68 | 270 | 7.0 | 0.0 | 0.00 | 0.06 | 0.00 | 69 | 1052.0 |
| 20260831131925 | 68 | 247 | 2.0 | 0.0 | 0.00 | 0.06 | 0.00 | 69 | 1051.9 |
| 20260831131819 | 68 | 270 | 6.0 | 0.0 | 0.00 | 0.06 | 0.00 | 69 | 1051.9 |
| 20260831131713 | 68 | 247 | 6.0 | 0.0 | 0.00 | 0.06 | 0.00 | 69 | 1051.9 |
| 20260831131600 | 68 | 270 | 3.0 | 0.0 | 0.00 | 0.06 | 0.00 | 69 | 1051.9 |
| 20260831131447 | 68 | 247 | 0.0 | 0.0 | 0.00 | 0.06 | 0.00 | 68 | 1051.9 |
| 20260831131326 | 68 | 270 | 0.0 | 0.0 | 0.00 | 0.06 | 0.00 | 68 | 1052.0 |
| 20260831131213 | 68 | 247 | 6.0 | 0.0 | 0.00 | 0.06 | 0.00 | 67 | 1051.9 |
| 20260831131059 | 68 | 270 | 5.0 | 0.0 | 0.00 | 0.06 | 0.00 | 66 | 1051.9 |
| 20260831130930 | 68 | 247 | 11.0 | 0.0 | 0.00 | 0.06 | 0.00 | 67 | 1051.9 |
| 20260831130817 | 68 | 270 | 4.0 | 0.0 | 0.00 | 0.06 | 0.00 | 67 | 1052.0 |
| 20260831130713 | 69 | 292 | 4.0 | 0.0 | 0.00 | 0.06 | 0.00 | 67 | 1051.9 |
| 20260831130607 | 69 | 270 | 9.0 | 0.0 | 0.00 | 0.06 | 0.00 | 69 | 1051.9 |
| 20260831130439 | 68 | 180 | 11.0 | 0.0 | 0.00 | 0.06 | 0.00 | 70 | 1051.9 |
| 20260831130334 | 68 | 225 | 4.0 | 0.0 | 0.00 | 0.06 | 0.00 | 71 | 1051.9 |
| 20260831130228 | 68 | 225 | 0.0 | 0.0 | 0.00 | 0.06 | 0.00 | 72 | 1051.9 |
| 20260831130059 | 68 | 225 | 8.0 | 0.0 | 0.00 | 0.06 | 0.00 | 73 | 1051.9 |
| 20260831125952 | 68 | 247 | 9.0 | 0.0 | 0.00 | 0.06 | 0.00 | 73 | 1051.9 |
| 20260831125839 | 68 | 270 | 6.0 | 0.0 | 0.00 | 0.06 | 0.00 | 73 | 1051.9 |
| 20260831125726 | 68 | 270 | 5.0 | 0.0 | 0.00 | 0.06 | 0.00 | 73 | 1051.9 |
| 20260831125613 | 68 | 270 | 5.0 | 0.0 | 0.00 | 0.06 | 0.00 | 74 | 1051.9 |
| 20260831125459 | 68 | 202 | 5.0 | 0.0 | 0.00 | 0.06 | 0.00 | 75 | 1051.9 |
| 20260831125332 | 68 | 247 | 4.0 | 0.0 | 0.00 | 0.06 | 0.00 | 75 | 1051.8 |
| 20260831125218 | 67 | 247 | 5.0 | 0.0 | 0.00 | 0.06 | 0.00 | 75 | 1051.8 |
| 20260831125113 | 67 | 247 | 1.0 | 0.0 | 0.00 | 0.06 | 0.00 | 75 | 1051.8 |
| 20260831125002 | 67 | 180 | 0.0 | 0.0 | 0.00 | 0.06 | 0.00 | 75 | 1051.8 |
| 20260831124855 | 67 | 247 | 8.0 | 0.0 | 0.00 | 0.06 | 0.00 | 75 | 1051.8 |
| 20260831124742 | 67 | 247 | 5.0 | 0.0 | 0.00 | 0.06 | 0.00 | 75 | 1051.8 |
| 20260831124637 | 67 | 225 | 1.0 | 0.0 | 0.00 | 0.06 | 0.00 | 77 | 1051.9 |
| 20260831124531 | 67 | 270 | 8.0 | 0.0 | 0.00 | 0.06 | 0.00 | 77 | 1051.8 |
| 20260831124410 | 67 | 247 | 0.0 | 0.0 | 0.00 | 0.06 | 0.00 | 78 | 1051.8 |
| 20260831124259 | 67 | 292 | 6.0 | 0.0 | 0.00 | 0.06 | 0.00 | 78 | 1051.8 |
| 20260831124150 | 66 | 270 | 4.0 | 0.0 | 0.00 | 0.06 | 0.00 | 77 | 1051.8 |
| 20260831124038 | 66 | 292 | 5.0 | 0.0 | 0.00 | 0.06 | 0.00 | 77 | 1051.8 |
| 20260831123908 | 66 | 202 | 11.0 | 0.0 | 0.00 | 0.06 | 0.00 | 77 | 1051.8 |
| 20260831123755 | 66 | 292 | 11.0 | 0.0 | 0.00 | 0.06 | 0.00 | 77 | 1051.8 |
| 20260831123641 | 66 | 202 | 5.0 | 0.0 | 0.00 | 0.06 | 0.00 | 77 | 1051.8 |
| 20260831123522 | 65 | 180 | 0.0 | 0.0 | 0.00 | 0.06 | 0.00 | 77 | 1051.8 |
| 20260831123417 | 65 | 202 | 6.0 | 0.0 | 0.00 | 0.06 | 0.00 | 77 | 1051.8 |
| 20260831123310 | 65 | 202 | 5.0 | 0.0 | 0.00 | 0.06 | 0.00 | 77 | 1051.8 |
| 20260831123149 | 65 | 247 | 9.0 | 0.0 | 0.00 | 0.06 | 0.00 | 77 | 1051.8 |
| 20260831123028 | 65 | 180 | 6.0 | 0.0 | 0.00 | 0.06 | 0.00 | 77 | 1051.8 |
| 20260831122915 | 65 | 202 | 7.0 | 0.0 | 0.00 | 0.06 | 0.00 | 77 | 1051.7 |
| 20260831122756 | 65 | 202 | 7.0 | 0.0 | 0.00 | 0.06 | 0.00 | 77 | 1051.8 |
| 20260831122642 | 65 | 202 | 14.0 | 0.0 | 0.00 | 0.06 | 0.00 | 77 | 1051.8 |
| 20260831122538 | 65 | 202 | 0.0 | 0.0 | 0.00 | 0.06 | 0.00 | 76 | 1051.8 |
| 20260831122431 | 64 | 225 | 5.0 | 0.0 | 0.00 | 0.06 | 0.00 | 76 | 1051.8 |
| 20260831122318 | 64 | 180 | 6.0 | 0.0 | 0.00 | 0.06 | 0.00 | 76 | 1051.8 |
| 20260831122156 | 64 | 225 | 7.0 | 0.0 | 0.00 | 0.06 | 0.00 | 78 | 1051.7 |
| 20260831122036 | 64 | 180 | 6.0 | 0.0 | 0.00 | 0.06 | 0.00 | 78 | 1051.7 |
| 20260831121924 | 64 | 202 | 9.0 | 0.0 | 0.00 | 0.06 | 0.00 | 78 | 1051.7 |
| 20260831121809 | 64 | 202 | 6.0 | 0.0 | 0.00 | 0.06 | 0.00 | 78 | 1051.7 |
| 20260831121656 | 64 | 202 | 9.0 | 0.0 | 0.00 | 0.06 | 0.00 | 78 | 1051.6 |
| 20260831121543 | 63 | 180 | 7.0 | 0.0 | 0.00 | 0.06 | 0.00 | 78 | 1051.6 |
| 20260831121438 | 63 | 157 | 8.0 | 0.0 | 0.00 | 0.06 | 0.00 | 79 | 1051.5 |
| 20260831121333 | 63 | 202 | 3.0 | 0.0 | 0.00 | 0.06 | 0.00 | 79 | 1051.6 |
| 20260831121220 | 63 | 202 | 4.0 | 0.0 | 0.00 | 0.06 | 0.00 | 79 | 1051.6 |
| 20260831121112 | 63 | 202 | 1.0 | 0.0 | 0.00 | 0.06 | 0.00 | 78 | 1051.6 |
| 20260831121001 | 63 | 247 | 4.0 | 0.0 | 0.00 | 0.06 | 0.00 | 78 | 1051.6 |
| 20260831120853 | 63 | 225 | 3.0 | 0.0 | 0.00 | 0.06 | 0.00 | 78 | 1051.6 |
| 20260831120739 | 63 | 180 | 8.0 | 0.0 | 0.00 | 0.06 | 0.00 | 78 | 1051.6 |
| 20260831120626 | 63 | 202 | 10.0 | 0.0 | 0.00 | 0.06 | 0.00 | 78 | 1051.7 |
| 20260831120520 | 63 | 180 | 9.0 | 0.0 | 0.00 | 0.06 | 0.00 | 78 | 1051.8 |
| 20260831120357 | 63 | 157 | 13.0 | 0.0 | 0.00 | 0.06 | 0.00 | 77 | 1051.8 |
| 20260831120235 | 63 | 225 | 9.0 | 0.0 | 0.00 | 0.06 | 0.00 | 76 | 1051.8 |
| 20260831120124 | 64 | 202 | 4.0 | 0.0 | 0.00 | 0.06 | 0.00 | 76 | 1051.8 |
| 20260831120017 | 64 | 202 | 0.0 | 0.0 | 0.00 | 0.06 | 0.00 | 75 | 1051.8 |
| 20260831115859 | 64 | 202 | 5.0 | 0.0 | 0.00 | 0.06 | 0.00 | 75 | 1051.8 |
| 20260831115752 | 65 | 225 | 6.0 | 0.0 | 0.00 | 0.06 | 0.00 | 74 | 1051.8 |
| 20260831115630 | 65 | 225 | 3.0 | 0.0 | 0.00 | 0.06 | 0.00 | 74 | 1051.8 |
| 20260831115509 | 66 | 292 | 11.0 | 0.0 | 0.00 | 0.06 | 0.00 | 76 | 1051.8 |
| 20260831115356 | 66 | 247 | 5.0 | 0.0 | 0.00 | 0.06 | 0.00 | 76 | 1051.8 |
| 20260831115242 | 66 | 202 | 5.0 | 0.0 | 0.00 | 0.06 | 0.00 | 76 | 1051.8 |
| 20260831115121 | 67 | 225 | 4.0 | 0.0 | 0.00 | 0.06 | 0.00 | 75 | 1051.7 |
| 20260831115011 | 67 | 225 | 9.0 | 0.0 | 0.00 | 0.06 | 0.00 | 75 | 1051.7 |
| 20260831114905 | 67 | 180 | 15.0 | 0.0 | 0.00 | 0.06 | 0.00 | 73 | 1051.7 |
| 20260831114757 | 67 | 202 | 17.0 | 0.0 | 0.00 | 0.06 | 0.00 | 72 | 1051.6 |
| 20260831114636 | 68 | 247 | 9.0 | 0.0 | 0.00 | 0.06 | 0.00 | 72 | 1051.5 |
| 20260831114523 | 68 | 247 | 11.0 | 0.0 | 0.00 | 0.06 | 0.00 | 72 | 1051.4 |
| 20260831114409 | 68 | 270 | 6.0 | 0.0 | 0.00 | 0.06 | 0.00 | 71 | 1051.4 |
| 20260831114248 | 68 | 202 | 5.0 | 0.0 | 0.00 | 0.06 | 0.00 | 71 | 1051.4 |
| 20260831114135 | 68 | 225 | 16.0 | 0.0 | 0.00 | 0.06 | 0.00 | 71 | 1051.4 |
| 20260831114014 | 68 | 202 | 8.0 | 0.0 | 0.00 | 0.06 | 0.00 | 71 | 1051.4 |
| 20260831113901 | 68 | 202 | 17.0 | 0.0 | 0.00 | 0.06 | 0.00 | 70 | 1051.4 |
| 20260831113750 | 68 | 202 | 6.0 | 0.0 | 0.00 | 0.06 | 0.00 | 70 | 1051.3 |
| 20260831113643 | 69 | 180 | 6.0 | 0.0 | 0.00 | 0.06 | 0.00 | 70 | 1051.4 |
| 20260831113529 | 69 | 180 | 4.0 | 0.0 | 0.00 | 0.06 | 0.00 | 70 | 1051.3 |
| 20260831113410 | 69 | 202 | 11.0 | 0.0 | 0.00 | 0.06 | 0.00 | 70 | 1051.3 |
| 20260831113255 | 69 | 247 | 4.0 | 0.0 | 0.00 | 0.06 | 0.00 | 69 | 1051.3 |
| 20260831113142 | 69 | 202 | 7.0 | 0.0 | 0.00 | 0.06 | 0.00 | 69 | 1051.4 |
| 20260831113029 | 69 | 225 | 14.0 | 0.0 | 0.00 | 0.06 | 0.00 | 68 | 1051.3 |
| 20260831112908 | 70 | 202 | 2.0 | 0.0 | 0.00 | 0.06 | 0.00 | 67 | 1051.3 |
| 20260831112748 | 70 | 202 | 14.0 | 0.0 | 0.00 | 0.06 | 0.00 | 66 | 1051.3 |
| 20260831112635 | 71 | 315 | 7.0 | 0.0 | 0.00 | 0.06 | 0.00 | 66 | 1051.2 |
| 20260831112530 | 71 | 180 | 4.0 | 0.0 | 0.00 | 0.06 | 0.00 | 65 | 1051.2 |
| 20260831112425 | 71 | 202 | 7.0 | 0.0 | 0.00 | 0.06 | 0.00 | 64 | 1051.2 |
| 20260831112310 | 71 | 292 | 0.0 | 0.0 | 0.00 | 0.06 | 0.00 | 62 | 1051.2 |
| 20260831112157 | 72 | 225 | 8.0 | 0.0 | 0.00 | 0.06 | 0.00 | 62 | 1051.2 |
| 20260831112044 | 73 | 270 | 7.0 | 0.0 | 0.00 | 0.06 | 0.00 | 61 | 1051.2 |
| 20260831111930 | 73 | 180 | 6.0 | 0.0 | 0.00 | 0.06 | 0.00 | 60 | 1051.2 |
| 20260831111811 | 74 | 135 | 9.0 | 0.0 | 0.00 | 0.06 | 0.00 | 60 | 1051.2 |
| 20260831111650 | 74 | 202 | 19.0 | 0.0 | 0.00 | 0.06 | 0.00 | 61 | 1051.2 |
| 20260831111545 | 75 | 225 | 14.0 | 0.0 | 0.00 | 0.06 | 0.00 | 61 | 1051.2 |
| 20260831111433 | 74 | 247 | 7.0 | 0.0 | 0.00 | 0.06 | 0.00 | 61 | 1051.2 |
| 20260831111327 | 74 | 247 | 12.0 | 0.0 | 0.00 | 0.06 | 0.00 | 62 | 1051.2 |
| 20260831111214 | 74 | 247 | 7.0 | 0.0 | 0.00 | 0.06 | 0.00 | 62 | 1051.3 |
| 20260831111102 | 74 | 247 | 5.0 | 0.0 | 0.00 | 0.06 | 0.00 | 63 | 1051.2 |
| 20260831110955 | 74 | 180 | 8.0 | 0.0 | 0.00 | 0.06 | 0.00 | 63 | 1051.2 |
| 20260831110841 | 74 | 270 | 3.0 | 0.0 | 0.00 | 0.06 | 0.00 | 61 | 1051.2 |
| 20260831110720 | 75 | 157 | 14.0 | 0.0 | 0.00 | 0.06 | 0.00 | 61 | 1051.3 |
| 20260831110559 | 75 | 180 | 6.0 | 0.0 | 0.00 | 0.06 | 0.00 | 61 | 1051.2 |
| 20260831110438 | 75 | 202 | 11.0 | 0.0 | 0.00 | 0.06 | 0.00 | 61 | 1051.2 |
| 20260831110312 | 75 | 202 | 7.0 | 0.0 | 0.00 | 0.06 | 0.00 | 61 | 1051.2 |
| 20260831110205 | 75 | 225 | 8.0 | 0.0 | 0.00 | 0.06 | 0.00 | 62 | 1051.2 |
| 20260831110052 | 75 | 247 | 4.0 | 0.0 | 0.00 | 0.06 | 0.00 | 62 | 1051.2 |
| 20260831105939 | 75 | 180 | 10.0 | 0.0 | 0.00 | 0.06 | 0.00 | 62 | 1051.2 |
| 20260831105826 | 75 | 270 | 12.0 | 0.0 | 0.00 | 0.06 | 0.00 | 63 | 1051.2 |
| 20260831105712 | 75 | 270 | 4.0 | 0.0 | 0.00 | 0.06 | 0.00 | 61 | 1051.2 |
| 20260831105558 | 75 | 247 | 13.0 | 0.0 | 0.00 | 0.06 | 0.00 | 63 | 1051.3 |
| 20260831105439 | 75 | 270 | 6.0 | 0.0 | 0.00 | 0.06 | 0.00 | 64 | 1051.2 |
| 20260831105332 | 75 | 225 | 10.0 | 0.0 | 0.00 | 0.06 | 0.00 | 64 | 1051.2 |
| 20260831105212 | 75 | 225 | 8.0 | 0.0 | 0.00 | 0.06 | 0.00 | 63 | 1051.2 |
| 20260831105057 | 75 | 292 | 9.0 | 0.0 | 0.00 | 0.06 | 0.00 | 64 | 1051.3 |
| 20260831104945 | 75 | 292 | 5.0 | 0.0 | 0.00 | 0.06 | 0.00 | 64 | 1051.3 |
| 20260831104834 | 74 | 180 | 7.0 | 0.0 | 0.00 | 0.06 | 0.00 | 64 | 1051.4 |
| 20260831104727 | 74 | 247 | 3.0 | 0.0 | 0.00 | 0.06 | 0.00 | 65 | 1051.4 |
| 20260831104614 | 73 | 225 | 7.0 | 0.0 | 0.00 | 0.06 | 0.00 | 66 | 1051.3 |
| 20260831104509 | 73 | 180 | 8.0 | 0.0 | 0.00 | 0.06 | 0.00 | 65 | 1051.3 |
| 20260831104355 | 73 | 247 | 6.0 | 0.0 | 0.00 | 0.06 | 0.00 | 66 | 1051.4 |
| 20260831104237 | 73 | 225 | 15.0 | 0.0 | 0.00 | 0.06 | 0.00 | 66 | 1051.3 |
| 20260831104129 | 73 | 202 | 19.0 | 0.0 | 0.00 | 0.06 | 0.00 | 66 | 1051.3 |
| 20260831104016 | 73 | 180 | 9.0 | 0.0 | 0.00 | 0.06 | 0.00 | 68 | 1051.2 |
| 20260831103911 | 73 | 247 | 3.0 | 0.0 | 0.00 | 0.06 | 0.00 | 68 | 1051.4 |
| 20260831103752 | 73 | 180 | 4.0 | 0.0 | 0.00 | 0.06 | 0.00 | 68 | 1051.2 |
| 20260831103645 | 73 | 247 | 7.0 | 0.0 | 0.00 | 0.06 | 0.00 | 69 | 1051.2 |
| 20260831103534 | 73 | 202 | 5.0 | 0.0 | 0.00 | 0.06 | 0.00 | 68 | 1051.4 |
| 20260831103426 | 73 | 225 | 4.0 | 0.0 | 0.00 | 0.06 | 0.00 | 67 | 1051.4 |
| 20260831103313 | 73 | 157 | 10.0 | 0.0 | 0.00 | 0.06 | 0.00 | 68 | 1051.4 |
| 20260831103153 | 73 | 247 | 6.0 | 0.0 | 0.00 | 0.06 | 0.00 | 69 | 1051.3 |
| 20260831103031 | 73 | 180 | 7.0 | 0.0 | 0.00 | 0.06 | 0.00 | 68 | 1051.5 |
| 20260831102910 | 73 | 225 | 6.0 | 0.0 | 0.00 | 0.06 | 0.00 | 68 | 1051.5 |
| 20260831102757 | 72 | 225 | 8.0 | 0.0 | 0.00 | 0.06 | 0.00 | 68 | 1051.5 |
| 20260831102635 | 72 | 292 | 0.0 | 0.0 | 0.00 | 0.06 | 0.00 | 69 | 1051.5 |
| 20260831102517 | 72 | 225 | 7.0 | 0.0 | 0.00 | 0.06 | 0.00 | 69 | 1051.5 |
| 20260831102410 | 72 | 202 | 8.0 | 0.0 | 0.00 | 0.06 | 0.00 | 68 | 1051.4 |
| 20260831102257 | 72 | 202 | 17.0 | 0.0 | 0.00 | 0.06 | 0.00 | 68 | 1051.5 |
| 20260831102143 | 72 | 180 | 6.0 | 0.0 | 0.00 | 0.06 | 0.00 | 69 | 1051.4 |
| 20260831102022 | 71 | 180 | 5.0 | 0.0 | 0.00 | 0.06 | 0.00 | 72 | 1051.5 |
| 20260831101909 | 71 | 180 | 6.0 | 0.0 | 0.00 | 0.06 | 0.00 | 73 | 1051.4 |
| 20260831101741 | 71 | 247 | 16.0 | 0.0 | 0.00 | 0.06 | 0.00 | 73 | 1051.5 |
| 20260831101633 | 71 | 157 | 6.0 | 0.0 | 0.00 | 0.06 | 0.00 | 74 | 1051.5 |
| 20260831101519 | 71 | 180 | 7.0 | 0.0 | 0.00 | 0.06 | 0.00 | 75 | 1051.4 |
| 20260831101358 | 71 | 270 | 0.0 | 0.0 | 0.00 | 0.06 | 0.00 | 75 | 1051.5 |
| 20260831101245 | 71 | 247 | 3.0 | 0.0 | 0.00 | 0.06 | 0.00 | 75 | 1051.5 |
| 20260831101133 | 70 | 225 | 13.0 | 0.0 | 0.00 | 0.06 | 0.00 | 75 | 1051.5 |
| 20260831101027 | 70 | 225 | 2.0 | 0.0 | 0.00 | 0.06 | 0.00 | 74 | 1051.6 |
| 20260831100922 | 70 | 180 | 9.0 | 0.0 | 0.00 | 0.06 | 0.00 | 72 | 1051.6 |
| 20260831100816 | 70 | 270 | 4.0 | 0.0 | 0.00 | 0.06 | 0.00 | 71 | 1051.5 |
| 20260831100710 | 70 | 225 | 12.0 | 0.0 | 0.00 | 0.06 | 0.00 | 71 | 1051.6 |
| 20260831100559 | 70 | 225 | 6.0 | 0.0 | 0.00 | 0.06 | 0.00 | 70 | 1051.5 |
| 20260831100454 | 71 | 225 | 15.0 | 0.0 | 0.00 | 0.06 | 0.00 | 70 | 1051.5 |
| 20260831100338 | 71 | 247 | 3.0 | 0.0 | 0.00 | 0.06 | 0.00 | 70 | 1051.6 |
| 20260831100217 | 71 | 247 | 8.0 | 0.0 | 0.00 | 0.06 | 0.00 | 71 | 1051.7 |
| 20260831100050 | 71 | 247 | 8.0 | 0.0 | 0.00 | 0.06 | 0.00 | 71 | 1051.6 |
| 20260831095943 | 71 | 202 | 7.0 | 0.0 | 0.00 | 0.06 | 0.00 | 71 | 1051.7 |
| 20260831095833 | 71 | 180 | 15.0 | 0.0 | 0.00 | 0.06 | 0.00 | 71 | 1051.7 |
| 20260831095726 | 71 | 157 | 6.0 | 0.0 | 0.00 | 0.06 | 0.00 | 70 | 1051.7 |
| 20260831095620 | 71 | 225 | 9.0 | 0.0 | 0.00 | 0.06 | 0.00 | 71 | 1051.7 |
| 20260831095516 | 71 | 180 | 8.0 | 0.0 | 0.00 | 0.06 | 0.00 | 71 | 1051.7 |
| 20260831095410 | 71 | 180 | 6.0 | 0.0 | 0.00 | 0.06 | 0.00 | 71 | 1051.6 |
| 20260831095258 | 71 | 225 | 10.0 | 0.0 | 0.00 | 0.06 | 0.00 | 71 | 1051.7 |
| 20260831095151 | 71 | 225 | 7.0 | 0.0 | 0.00 | 0.06 | 0.00 | 71 | 1051.6 |
| 20260831095031 | 71 | 202 | 6.0 | 0.0 | 0.00 | 0.06 | 0.00 | 70 | 1051.7 |
| 20260831094919 | 71 | 202 | 8.0 | 0.0 | 0.00 | 0.06 | 0.00 | 70 | 1051.7 |
| 20260831094805 | 71 | 270 | 10.0 | 0.0 | 0.00 | 0.06 | 0.00 | 70 | 1051.6 |
| 20260831094653 | 71 | 180 | 8.0 | 0.0 | 0.00 | 0.06 | 0.00 | 70 | 1051.7 |
| 20260831094546 | 71 | 225 | 16.0 | 0.0 | 0.00 | 0.06 | 0.00 | 72 | 1051.8 |
| 20260831094425 | 71 | 225 | 5.0 | 0.0 | 0.00 | 0.06 | 0.00 | 71 | 1051.8 |
| 20260831094303 | 71 | 270 | 6.0 | 0.0 | 0.00 | 0.06 | 0.00 | 72 | 1051.8 |
| 20260831094153 | 71 | 202 | 11.0 | 0.0 | 0.00 | 0.06 | 0.00 | 72 | 1051.8 |
| 20260831094047 | 70 | 202 | 5.0 | 0.0 | 0.00 | 0.06 | 0.00 | 72 | 1051.8 |
| 20260831093941 | 70 | 247 | 7.0 | 0.0 | 0.00 | 0.06 | 0.00 | 72 | 1051.9 |
| 20260831093838 | 70 | 180 | 8.0 | 0.0 | 0.00 | 0.06 | 0.00 | 71 | 1051.8 |
| 20260831093730 | 70 | 180 | 11.0 | 0.0 | 0.00 | 0.06 | 0.00 | 70 | 1051.9 |
| 20260831093609 | 71 | 225 | 6.0 | 0.0 | 0.00 | 0.06 | 0.00 | 70 | 1051.8 |
| 20260831093458 | 71 | 202 | 6.0 | 0.0 | 0.00 | 0.06 | 0.00 | 69 | 1051.8 |
| 20260831093351 | 71 | 247 | 5.0 | 0.0 | 0.00 | 0.06 | 0.00 | 69 | 1051.8 |
| 20260831093229 | 72 | 270 | 7.0 | 0.0 | 0.00 | 0.06 | 0.00 | 68 | 1051.8 |
| 20260831093100 | 72 | 157 | 6.0 | 0.0 | 0.00 | 0.06 | 0.00 | 68 | 1051.8 |
| 20260831092947 | 72 | 225 | 4.0 | 0.0 | 0.00 | 0.06 | 0.00 | 70 | 1051.7 |
| 20260831092842 | 71 | 202 | 5.0 | 0.0 | 0.00 | 0.06 | 0.00 | 72 | 1051.7 |
| 20260831092728 | 71 | 202 | 13.0 | 0.0 | 0.00 | 0.06 | 0.00 | 72 | 1051.7 |
| 20260831092607 | 70 | 247 | 0.0 | 0.0 | 0.00 | 0.06 | 0.00 | 73 | 1051.7 |
| 20260831092453 | 70 | 202 | 9.0 | 0.0 | 0.00 | 0.06 | 0.00 | 74 | 1051.8 |
| 20260831092339 | 70 | 247 | 8.0 | 0.0 | 0.00 | 0.06 | 0.00 | 73 | 1051.7 |
| 20260831092226 | 69 | 180 | 6.0 | 0.0 | 0.00 | 0.06 | 0.00 | 73 | 1051.7 |
| 20260831092115 | 69 | 225 | 4.0 | 0.0 | 0.00 | 0.06 | 0.00 | 73 | 1051.7 |
| 20260831092008 | 70 | 202 | 6.0 | 0.0 | 0.00 | 0.06 | 0.00 | 71 | 1051.7 |
| 20260831091854 | 70 | 180 | 9.0 | 0.0 | 0.00 | 0.06 | 0.00 | 71 | 1051.7 |
| 20260831091742 | 70 | 202 | 7.0 | 0.0 | 0.00 | 0.06 | 0.00 | 70 | 1051.7 |
| 20260831091628 | 71 | 180 | 8.0 | 0.0 | 0.00 | 0.06 | 0.00 | 69 | 1051.6 |
| 20260831091506 | 71 | 180 | 6.0 | 0.0 | 0.00 | 0.06 | 0.00 | 69 | 1051.7 |
| 20260831091346 | 71 | 180 | 15.0 | 0.0 | 0.00 | 0.06 | 0.00 | 68 | 1051.7 |
| 20260831091226 | 72 | 202 | 13.0 | 0.0 | 0.00 | 0.06 | 0.00 | 67 | 1051.7 |
| 20260831091121 | 73 | 180 | 6.0 | 0.0 | 0.00 | 0.06 | 0.00 | 67 | 1051.7 |
| 20260831091015 | 73 | 225 | 6.0 | 0.0 | 0.00 | 0.06 | 0.00 | 67 | 1051.6 |
| 20260831090846 | 73 | 157 | 5.0 | 0.0 | 0.00 | 0.06 | 0.00 | 66 | 1051.6 |
| 20260831090733 | 74 | 225 | 12.0 | 0.0 | 0.00 | 0.06 | 0.00 | 66 | 1051.5 |
| 20260831090629 | 74 | 180 | 8.0 | 0.0 | 0.00 | 0.06 | 0.00 | 66 | 1051.5 |
| 20260831090523 | 74 | 180 | 8.0 | 0.0 | 0.00 | 0.06 | 0.00 | 65 | 1051.5 |
| 20260831090419 | 74 | 247 | 5.0 | 0.0 | 0.00 | 0.06 | 0.00 | 66 | 1051.4 |
| 20260831090313 | 74 | 225 | 7.0 | 0.0 | 0.00 | 0.06 | 0.00 | 66 | 1051.4 |
| 20260831090209 | 74 | 202 | 10.0 | 0.0 | 0.00 | 0.06 | 0.00 | 66 | 1051.4 |
| 20260831090103 | 74 | 225 | 6.0 | 0.0 | 0.00 | 0.06 | 0.00 | 65 | 1051.4 |
| 20260831085957 | 74 | 202 | 10.0 | 0.0 | 0.00 | 0.08 | 0.00 | 66 | 1051.4 |
| 20260831085839 | 74 | 247 | 10.0 | 0.0 | 0.00 | 0.08 | 0.00 | 67 | 1051.4 |
| 20260831085731 | 74 | 180 | 4.0 | 0.0 | 0.00 | 0.08 | 0.00 | 67 | 1051.4 |
| 20260831085610 | 74 | 157 | 8.0 | 0.0 | 0.00 | 0.08 | 0.00 | 66 | 1051.3 |
| 20260831085450 | 74 | 202 | 6.0 | 0.0 | 0.00 | 0.08 | 0.00 | 67 | 1051.4 |
| 20260831085345 | 74 | 225 | 17.0 | 0.0 | 0.00 | 0.08 | 0.00 | 66 | 1051.3 |
| 20260831085223 | 74 | 180 | 5.0 | 0.0 | 0.00 | 0.08 | 0.00 | 67 | 1051.3 |
| 20260831085110 | 74 | 202 | 7.0 | 0.0 | 0.00 | 0.08 | 0.00 | 68 | 1051.4 |
| 20260831084941 | 73 | 202 | 8.0 | 0.0 | 0.00 | 0.08 | 0.00 | 69 | 1051.3 |
| 20260831084819 | 73 | 225 | 8.0 | 0.0 | 0.00 | 0.08 | 0.00 | 69 | 1051.4 |
| 20260831084658 | 73 | 247 | 6.0 | 0.0 | 0.00 | 0.08 | 0.00 | 69 | 1051.4 |
| 20260831084548 | 73 | 202 | 6.0 | 0.0 | 0.00 | 0.08 | 0.00 | 70 | 1051.4 |
| 20260831084441 | 73 | 247 | 5.0 | 0.0 | 0.00 | 0.08 | 0.00 | 70 | 1051.4 |
| 20260831084319 | 73 | 292 | 9.0 | 0.0 | 0.00 | 0.08 | 0.00 | 71 | 1051.4 |
| 20260831084207 | 73 | 225 | 5.0 | 0.0 | 0.00 | 0.08 | 0.00 | 72 | 1051.3 |
| 20260831084100 | 73 | 270 | 10.0 | 0.0 | 0.00 | 0.08 | 0.00 | 73 | 1051.4 |
| 20260831083948 | 72 | 225 | 11.0 | 0.0 | 0.00 | 0.08 | 0.00 | 74 | 1051.4 |
| 20260831083834 | 71 | 180 | 8.0 | 0.0 | 0.00 | 0.08 | 0.00 | 76 | 1051.3 |
| 20260831083713 | 71 | 180 | 3.0 | 0.0 | 0.00 | 0.08 | 0.00 | 77 | 1051.4 |
| 20260831083553 | 70 | 225 | 6.0 | 0.0 | 0.00 | 0.08 | 0.00 | 77 | 1051.3 |
| 20260831083442 | 70 | 202 | 7.0 | 0.0 | 0.00 | 0.08 | 0.00 | 77 | 1051.3 |
| 20260831083336 | 69 | 202 | 7.0 | 0.0 | 0.00 | 0.08 | 0.00 | 78 | 1051.4 |
| 20260831083215 | 69 | 180 | 16.0 | 0.0 | 0.00 | 0.08 | 0.00 | 79 | 1051.4 |
| 20260831083054 | 69 | 202 | 9.0 | 0.0 | 0.00 | 0.08 | 0.00 | 79 | 1051.4 |
| 20260831082923 | 69 | 292 | 9.0 | 0.0 | 0.00 | 0.08 | 0.00 | 78 | 1051.4 |
| 20260831082759 | 69 | 202 | 6.0 | 0.0 | 0.02 | 0.08 | 0.00 | 79 | 1051.4 |
| 20260831082645 | 69 | 157 | 7.0 | 0.0 | 0.02 | 0.08 | 0.00 | 79 | 1051.3 |
| 20260831082530 | 68 | 247 | 4.0 | 0.0 | 0.02 | 0.08 | 0.00 | 80 | 1051.4 |
| 20260831082407 | 68 | 225 | 6.0 | 0.0 | 0.02 | 0.08 | 0.00 | 80 | 1051.3 |
| 20260831082254 | 68 | 270 | 6.0 | 0.0 | 0.02 | 0.08 | 0.00 | 80 | 1051.3 |
| 20260831082132 | 68 | 225 | 9.0 | 0.0 | 0.02 | 0.08 | 0.00 | 79 | 1051.4 |
| 20260831082009 | 68 | 225 | 9.0 | 0.0 | 0.02 | 0.08 | 0.00 | 79 | 1051.3 |
| 20260831081859 | 68 | 135 | 2.0 | 0.0 | 0.02 | 0.08 | 0.00 | 80 | 1051.3 |
| 20260831081753 | 68 | 180 | 9.0 | 0.0 | 0.02 | 0.08 | 0.00 | 80 | 1051.5 |
| 20260831081631 | 68 | 202 | 5.0 | 0.0 | 0.02 | 0.08 | 0.00 | 81 | 1051.4 |
| 20260831081511 | 67 | 202 | 8.0 | 0.0 | 0.02 | 0.08 | 0.00 | 80 | 1051.3 |
| 20260831081358 | 67 | 180 | 8.0 | 0.0 | 0.02 | 0.08 | 0.00 | 81 | 1051.4 |
| 20260831081243 | 68 | 180 | 10.0 | 0.0 | 0.02 | 0.08 | 0.00 | 81 | 1051.4 |
| 20260831081114 | 67 | 135 | 3.0 | 0.0 | 0.02 | 0.08 | 0.00 | 81 | 1051.5 |
| 20260831081001 | 67 | 225 | 6.0 | 0.0 | 0.02 | 0.08 | 0.00 | 81 | 1051.4 |
| 20260831080848 | 67 | 202 | 4.0 | 0.0 | 0.02 | 0.08 | 0.00 | 81 | 1051.5 |
| 20260831080728 | 67 | 180 | 16.0 | 0.0 | 0.02 | 0.08 | 0.00 | 81 | 1051.5 |
| 20260831080622 | 67 | 247 | 13.0 | 0.0 | 0.02 | 0.08 | 0.00 | 80 | 1051.5 |
| 20260831080503 | 67 | 157 | 14.0 | 0.0 | 0.02 | 0.08 | 0.00 | 80 | 1051.5 |
| 20260831080355 | 67 | 180 | 12.0 | 0.0 | 0.02 | 0.08 | 0.00 | 80 | 1051.6 |
| 20260831080235 | 67 | 202 | 7.0 | 0.0 | 0.02 | 0.08 | 0.00 | 80 | 1051.6 |
| 20260831080121 | 67 | 157 | 11.0 | 0.0 | 0.02 | 0.08 | 0.00 | 80 | 1051.6 |
| 20260831075953 | 67 | 157 | 13.0 | 0.0 | 0.02 | 0.08 | 0.00 | 80 | 1051.6 |
| 20260831075846 | 67 | 225 | 11.0 | 0.0 | 0.02 | 0.08 | 0.00 | 80 | 1051.4 |
| 20260831075740 | 67 | 202 | 8.0 | 0.0 | 0.02 | 0.08 | 0.00 | 80 | 1051.5 |
| 20260831075626 | 68 | 157 | 16.0 | 0.0 | 0.02 | 0.08 | 0.00 | 79 | 1051.6 |
| 20260831075521 | 68 | 202 | 8.0 | 0.0 | 0.02 | 0.08 | 0.00 | 79 | 1051.5 |
| 20260831075414 | 68 | 157 | 8.0 | 0.0 | 0.02 | 0.08 | 0.00 | 78 | 1051.6 |
| 20260831075308 | 68 | 225 | 6.0 | 0.0 | 0.02 | 0.08 | 0.00 | 78 | 1051.6 |
| 20260831075148 | 68 | 180 | 7.0 | 0.0 | 0.02 | 0.08 | 0.00 | 77 | 1051.6 |
| 20260831075043 | 69 | 225 | 12.0 | 0.0 | 0.02 | 0.08 | 0.00 | 77 | 1051.6 |
| 20260831074930 | 69 | 247 | 6.0 | 0.0 | 0.02 | 0.08 | 0.00 | 76 | 1051.6 |
| 20260831074816 | 70 | 225 | 11.0 | 0.0 | 0.02 | 0.08 | 0.00 | 75 | 1051.6 |
| 20260831074654 | 70 | 202 | 9.0 | 0.0 | 0.02 | 0.08 | 0.00 | 76 | 1051.6 |
| 20260831074533 | 70 | 180 | 2.0 | 0.0 | 0.02 | 0.08 | 0.00 | 77 | 1051.6 |
| 20260831074404 | 70 | 202 | 9.0 | 0.0 | 0.02 | 0.08 | 0.00 | 76 | 1051.5 |
| 20260831074251 | 70 | 202 | 12.0 | 0.0 | 0.02 | 0.08 | 0.00 | 75 | 1051.6 |
| 20260831074138 | 71 | 180 | 10.0 | 0.0 | 0.02 | 0.08 | 0.00 | 74 | 1051.5 |
| 20260831074018 | 71 | 202 | 20.0 | 0.0 | 0.02 | 0.08 | 0.00 | 75 | 1051.6 |
| 20260831073912 | 71 | 202 | 0.0 | 0.0 | 0.02 | 0.08 | 0.00 | 79 | 1051.6 |
| 20260831073404 | 67 | 180 | 114.0 | 0.0 | 0.02 | 0.08 | 0.00 | 82 | 1051.5 |
| 20260831072741 | 67 | 180 | 114.0 | 0.0 | 0.00 | 0.06 | 0.00 | 82 | 1051.6 |
| 20260831072111 | 68 | 180 | 114.0 | 0.0 | 0.00 | 0.06 | 0.00 | 81 | 1051.5 |
| 20260831071506 | 69 | 180 | 114.0 | 0.0 | 0.00 | 0.06 | 0.00 | 81 | 1051.3 |
| 20260831070900 | 68 | 180 | 114.0 | 0.0 | 0.00 | 0.06 | 0.00 | 88 | 1051.3 |
| 20260831070237 | 65 | 180 | 114.0 | 0.0 | 0.00 | 0.06 | 0.00 | 92 | 1051.4 |
| 20260831065615 | 64 | 180 | 114.0 | 0.0 | 0.00 | 0.06 | 0.00 | 92 | 1051.6 |
| 20260831065030 | 63 | 180 | 114.0 | 0.0 | 0.00 | 0.06 | 0.00 | 92 | 1051.6 |
| 20260831064416 | 63 | 180 | 114.0 | 0.0 | 0.00 | 0.06 | 0.00 | 93 | 1051.6 |
| 20260831063819 | 62 | 180 | 114.0 | 0.0 | 0.00 | 0.06 | 0.00 | 93 | 1051.6 |
| 20260831063221 | 62 | 180 | 114.0 | 0.0 | 0.00 | 0.06 | 0.00 | 94 | 1051.6 |
| 20260831062608 | 62 | 180 | 114.0 | 0.0 | 0.00 | 0.06 | 0.00 | 94 | 1051.5 |
| 20260831061953 | 62 | 180 | 114.0 | 0.0 | 0.00 | 0.06 | 0.00 | 94 | 1051.6 |
| 20260831061358 | 63 | 180 | 114.0 | 0.0 | 0.00 | 0.06 | 0.00 | 94 | 1051.6 |
| 20260831060750 | 63 | 180 | 114.0 | 0.0 | 0.00 | 0.06 | 0.00 | 94 | 1051.7 |
| 20260831060145 | 63 | 180 | 114.0 | 0.0 | 0.00 | 0.06 | 0.00 | 94 | 1051.7 |
| 20260831055541 | 64 | 180 | 114.0 | 0.0 | 0.00 | 0.06 | 0.00 | 94 | 1051.7 |
| 20260831054943 | 63 | 180 | 114.0 | 0.0 | 0.00 | 0.06 | 0.00 | 94 | 1051.7 |
| 20260831054330 | 61 | 180 | 114.0 | 0.0 | 0.00 | 0.06 | 0.00 | 94 | 1051.4 |
| 20260831053730 | 61 | 180 | 114.0 | 0.0 | 0.00 | 0.06 | 0.00 | 95 | 1051.7 |
| 20260831053133 | 61 | 180 | 114.0 | 0.0 | 0.00 | 0.06 | 0.00 | 95 | 1051.7 |
| 20260831052528 | 61 | 180 | 114.0 | 0.0 | 0.00 | 0.06 | 0.00 | 95 | 1051.6 |
| 20260831051930 | 61 | 180 | 114.0 | 0.0 | 0.00 | 0.06 | 0.00 | 95 | 1051.7 |
| 20260831051316 | 61 | 180 | 114.0 | 0.0 | 0.00 | 0.06 | 0.00 | 95 | 1051.8 |
| 20260831050720 | 61 | 180 | 114.0 | 0.0 | 0.00 | 0.06 | 0.00 | 95 | 1051.8 |
| 20260831050113 | 61 | 180 | 114.0 | 0.0 | 0.00 | 0.06 | 0.00 | 95 | 1051.8 |
| 20260831045459 | 61 | 180 | 114.0 | 0.0 | 0.00 | 0.06 | 0.00 | 95 | 1051.7 |
| 20260831044903 | 61 | 180 | 114.0 | 0.0 | 0.00 | 0.06 | 0.00 | 95 | 1051.5 |
| 20260831044256 | 61 | 180 | 114.0 | 0.0 | 0.00 | 0.06 | 0.00 | 95 | 1051.6 |
| 20260831043658 | 61 | 180 | 114.0 | 0.0 | 0.00 | 0.06 | 0.00 | 95 | 1051.5 |
| 20260831043045 | 61 | 180 | 114.0 | 0.0 | 0.00 | 0.06 | 0.00 | 95 | 1051.5 |
| 20260831042415 | 61 | 180 | 114.0 | 0.0 | 0.00 | 0.06 | 0.00 | 95 | 1051.6 |
| 20260831041802 | 61 | 180 | 114.0 | 0.0 | 0.00 | 0.06 | 0.00 | 95 | 1051.5 |
| 20260831041148 | 61 | 180 | 114.0 | 0.0 | 0.00 | 0.06 | 0.00 | 95 | 1051.5 |
| 20260831040520 | 61 | 180 | 114.0 | 0.0 | 0.00 | 0.06 | 0.00 | 95 | 1051.5 |
| 20260831035858 | 61 | 180 | 114.0 | 0.0 | 0.00 | 0.12 | 0.00 | 95 | 1051.4 |
| 20260831035234 | 61 | 180 | 114.0 | 0.0 | 0.00 | 0.12 | 0.00 | 95 | 1051.5 |
| 20260831034556 | 61 | 180 | 114.0 | 0.0 | 0.00 | 0.12 | 0.00 | 95 | 1051.6 |
| 20260831033934 | 61 | 180 | 114.0 | 0.0 | 0.00 | 0.12 | 0.00 | 95 | 1051.7 |
| 20260831033304 | 61 | 180 | 114.0 | 0.0 | 0.00 | 0.12 | 0.00 | 95 | 1051.8 |
| 20260831032634 | 61 | 180 | 114.0 | 0.0 | 0.00 | 0.12 | 0.00 | 95 | 1051.8 |
| 20260831032005 | 61 | 180 | 114.0 | 0.0 | 0.00 | 0.12 | 0.00 | 95 | 1051.8 |
| 20260831031334 | 61 | 180 | 114.0 | 0.0 | 0.00 | 0.12 | 0.00 | 95 | 1051.8 |
| 20260831030705 | 61 | 180 | 114.0 | 0.0 | 0.00 | 0.12 | 0.00 | 95 | 1051.9 |
| 20260831030034 | 61 | 180 | 114.0 | 0.0 | 0.02 | 0.12 | 0.00 | 95 | 1051.9 |
| 20260831025412 | 61 | 180 | 114.0 | 0.0 | 0.02 | 0.12 | 0.00 | 95 | 1051.9 |
| 20260831024734 | 61 | 180 | 114.0 | 0.0 | 0.04 | 0.12 | 0.00 | 95 | 1052.0 |
| 20260831024104 | 61 | 180 | 114.0 | 0.0 | 0.04 | 0.12 | 0.00 | 95 | 1051.9 |
| 20260831023434 | 61 | 180 | 114.0 | 0.0 | 0.04 | 0.12 | 0.00 | 95 | 1052.2 |
| 20260831022804 | 61 | 180 | 114.0 | 0.0 | 0.04 | 0.12 | 0.00 | 95 | 1052.2 |
| 20260831022134 | 61 | 180 | 114.0 | 0.0 | 0.04 | 0.12 | 0.00 | 95 | 1052.1 |
| 20260831021456 | 61 | 180 | 114.0 | 0.0 | 0.04 | 0.12 | 0.00 | 95 | 1051.9 |
| 20260831020826 | 61 | 180 | 114.0 | 0.0 | 0.04 | 0.12 | 0.00 | 95 | 1052.0 |
| 20260831020148 | 61 | 180 | 114.0 | 0.0 | 0.02 | 0.10 | 0.00 | 95 | 1052.0 |
| 20260831015534 | 61 | 180 | 114.0 | 0.0 | 0.02 | 0.14 | 0.00 | 95 | 1052.3 |
| 20260831014905 | 61 | 180 | 114.0 | 0.0 | 0.02 | 0.14 | 0.00 | 95 | 1052.3 |
| 20260831014234 | 61 | 180 | 114.0 | 0.0 | 0.00 | 0.12 | 0.00 | 95 | 1052.4 |
| 20260831013605 | 61 | 180 | 114.0 | 0.0 | 0.00 | 0.12 | 0.00 | 95 | 1052.4 |
| 20260831012935 | 61 | 180 | 114.0 | 0.0 | 0.00 | 0.12 | 0.00 | 95 | 1052.5 |
| 20260831012313 | 61 | 180 | 114.0 | 0.0 | 0.00 | 0.12 | 0.00 | 95 | 1052.5 |
| 20260831011620 | 61 | 157 | 0.0 | 0.0 | 0.00 | 0.12 | 0.00 | 94 | 1052.5 |
| 20260831011513 | 60 | 180 | 0.0 | 0.0 | 0.00 | 0.12 | 0.00 | 95 | 1052.6 |
| 20260831011200 | 60 | 157 | 7.0 | 0.0 | 0.00 | 0.12 | 0.00 | 94 | 1052.7 |
| 20260831011053 | 60 | 135 | 0.0 | 0.0 | 0.00 | 0.12 | 0.00 | 94 | 1052.6 |
| 20260831010940 | 60 | 157 | 0.0 | 0.0 | 0.00 | 0.12 | 0.00 | 94 | 1052.7 |
| 20260831010827 | 60 | 135 | 0.0 | 0.0 | 0.00 | 0.12 | 0.00 | 94 | 1052.7 |
| 20260831010705 | 60 | 180 | 3.0 | 0.0 | 0.00 | 0.12 | 0.00 | 94 | 1052.7 |
| 20260831010545 | 60 | 157 | 3.0 | 0.0 | 0.00 | 0.12 | 0.00 | 94 | 1052.8 |
| 20260831010440 | 60 | 157 | 0.0 | 0.0 | 0.00 | 0.12 | 0.00 | 94 | 1052.8 |
| 20260831010325 | 60 | 135 | 0.0 | 0.0 | 0.00 | 0.12 | 0.00 | 94 | 1052.9 |
| 20260831005939 | 60 | 202 | 5.0 | 0.0 | 0.00 | 0.12 | 0.00 | 94 | 1052.9 |
| 20260831005833 | 60 | 112 | 1.0 | 0.0 | 0.00 | 0.12 | 0.00 | 94 | 1052.9 |
| 20260831005721 | 60 | 135 | 0.0 | 0.0 | 0.00 | 0.12 | 0.00 | 94 | 1053.0 |
| 20260831005610 | 60 | 135 | 0.0 | 0.0 | 0.00 | 0.12 | 0.00 | 94 | 1053.0 |
| 20260831005502 | 60 | 135 | 0.0 | 0.0 | 0.00 | 0.12 | 0.00 | 94 | 1053.0 |
| 20260831005349 | 60 | 157 | 0.0 | 0.0 | 0.00 | 0.12 | 0.00 | 94 | 1053.1 |
| 20260831005230 | 60 | 157 | 0.0 | 0.0 | 0.00 | 0.12 | 0.00 | 94 | 1053.0 |
| 20260831005115 | 60 | 157 | 0.0 | 0.0 | 0.00 | 0.12 | 0.00 | 94 | 1053.0 |
| 20260831005001 | 60 | 135 | 0.0 | 0.0 | 0.00 | 0.12 | 0.00 | 94 | 1053.1 |
| 20260831004843 | 60 | 157 | 0.0 | 0.0 | 0.00 | 0.12 | 0.00 | 94 | 1053.1 |
| 20260831004737 | 60 | 180 | 0.0 | 0.0 | 0.00 | 0.12 | 0.00 | 94 | 1053.2 |
| 20260831004622 | 60 | 180 | 6.0 | 0.0 | 0.00 | 0.12 | 0.00 | 94 | 1053.1 |
| 20260831004503 | 60 | 157 | 1.0 | 0.0 | 0.00 | 0.12 | 0.00 | 94 | 1053.1 |
| 20260831004350 | 60 | 112 | 0.0 | 0.0 | 0.00 | 0.12 | 0.00 | 94 | 1053.1 |
| 20260831004237 | 60 | 135 | 1.0 | 0.0 | 0.00 | 0.12 | 0.00 | 94 | 1053.2 |
| 20260831004130 | 60 | 180 | 1.0 | 0.0 | 0.00 | 0.12 | 0.00 | 94 | 1053.2 |
| 20260831004016 | 60 | 157 | 2.0 | 0.0 | 0.00 | 0.12 | 0.00 | 94 | 1053.1 |
| 20260831003905 | 60 | 180 | 3.0 | 0.0 | 0.00 | 0.12 | 0.00 | 94 | 1053.3 |
| 20260831003758 | 60 | 157 | 0.0 | 0.0 | 0.00 | 0.12 | 0.00 | 94 | 1053.3 |
| 20260831003637 | 60 | 157 | 0.0 | 0.0 | 0.00 | 0.12 | 0.00 | 94 | 1053.2 |
| 20260831003524 | 60 | 157 | 0.0 | 0.0 | 0.00 | 0.12 | 0.00 | 94 | 1053.2 |
| 20260831003356 | 60 | 180 | 0.0 | 0.0 | 0.00 | 0.12 | 0.00 | 94 | 1053.3 |
| 20260831003249 | 60 | 180 | 4.0 | 0.0 | 0.00 | 0.12 | 0.00 | 94 | 1053.3 |
| 20260831003138 | 60 | 157 | 3.0 | 0.0 | 0.00 | 0.12 | 0.00 | 94 | 1053.3 |
| 20260831003032 | 60 | 157 | 0.0 | 0.0 | 0.00 | 0.12 | 0.00 | 94 | 1053.3 |
| 20260831002903 | 60 | 157 | 0.0 | 0.0 | 0.00 | 0.12 | 0.00 | 94 | 1053.3 |
| 20260831002742 | 60 | 135 | 0.0 | 0.0 | 0.00 | 0.12 | 0.00 | 94 | 1053.3 |
| 20260831002616 | 60 | 157 | 0.0 | 0.0 | 0.00 | 0.12 | 0.00 | 94 | 1053.3 |
| 20260831002502 | 60 | 157 | 0.0 | 0.0 | 0.00 | 0.12 | 0.00 | 94 | 1053.3 |
| 20260831002339 | 60 | 180 | 0.0 | 0.0 | 0.00 | 0.12 | 0.00 | 94 | 1053.3 |
| 20260831002210 | 60 | 202 | 3.0 | 0.0 | 0.00 | 0.12 | 0.00 | 94 | 1053.3 |
| 20260831002104 | 60 | 157 | 0.0 | 0.0 | 0.00 | 0.12 | 0.00 | 94 | 1053.4 |
| 20260831001952 | 60 | 180 | 0.0 | 0.0 | 0.00 | 0.12 | 0.00 | 94 | 1053.5 |
| 20260831001845 | 60 | 180 | 0.0 | 0.0 | 0.00 | 0.12 | 0.00 | 94 | 1053.4 |
| 20260831001732 | 60 | 157 | 0.0 | 0.0 | 0.00 | 0.12 | 0.00 | 94 | 1053.5 |
| 20260831001603 | 60 | 157 | 0.0 | 0.0 | 0.00 | 0.12 | 0.00 | 94 | 1053.5 |
| 20260831001449 | 60 | 157 | 0.0 | 0.0 | 0.00 | 0.12 | 0.00 | 94 | 1053.5 |
| 20260831001327 | 60 | 157 | 0.0 | 0.0 | 0.00 | 0.12 | 0.00 | 94 | 1053.6 |
| 20260831001218 | 60 | 157 | 0.0 | 0.0 | 0.00 | 0.12 | 0.00 | 94 | 1053.6 |
| 20260831001112 | 60 | 157 | 2.0 | 0.0 | 0.00 | 0.12 | 0.00 | 94 | 1053.5 |
| 20260831001007 | 60 | 157 | 0.0 | 0.0 | 0.00 | 0.12 | 0.00 | 94 | 1053.6 |
| 20260831000900 | 60 | 157 | 0.0 | 0.0 | 0.00 | 0.12 | 0.00 | 94 | 1053.5 |
| 20260831000746 | 60 | 180 | 0.0 | 0.0 | 0.00 | 0.12 | 0.00 | 94 | 1053.5 |
| 20260831000617 | 61 | 157 | 0.0 | 0.0 | 0.00 | 0.12 | 0.00 | 94 | 1053.6 |
| 20260831000505 | 61 | 157 | 0.0 | 0.0 | 0.00 | 0.12 | 0.00 | 94 | 1053.6 |
| 20260831000350 | 61 | 180 | 7.0 | 0.0 | 0.00 | 0.12 | 0.00 | 94 | 1053.6 |
| 20260831000233 | 61 | 157 | 0.0 | 0.0 | 0.00 | 0.12 | 0.00 | 94 | 1053.6 |
| 20260831000116 | 61 | 157 | 1.0 | 0.0 | 0.00 | 0.12 | 0.00 | 94 | 1053.7 |
| 20260830235957 | 61 | 157 | 0.0 | 0.0 | 0.00 | 0.16 | 0.00 | 94 | 1053.7 |
| 20260830235842 | 61 | 180 | 4.0 | 0.0 | 0.00 | 0.16 | 0.00 | 94 | 1053.7 |
| 20260830235729 | 61 | 180 | 0.0 | 0.0 | 0.00 | 0.16 | 0.00 | 94 | 1053.7 |
| 20260830235608 | 61 | 180 | 4.0 | 0.0 | 0.00 | 0.16 | 0.00 | 94 | 1053.6 |
| 20260830235454 | 61 | 157 | 0.0 | 0.0 | 0.00 | 0.16 | 0.00 | 94 | 1053.7 |
| 20260830235342 | 61 | 157 | 1.0 | 0.0 | 0.00 | 0.16 | 0.00 | 94 | 1053.7 |
| 20260830235228 | 61 | 157 | 0.0 | 0.0 | 0.00 | 0.16 | 0.00 | 94 | 1053.7 |
| 20260830235110 | 61 | 180 | 5.0 | 0.0 | 0.00 | 0.16 | 0.00 | 94 | 1053.7 |
| 20260830235003 | 60 | 180 | 6.0 | 0.0 | 0.00 | 0.16 | 0.00 | 94 | 1053.6 |
| 20260830234841 | 61 | 135 | 0.0 | 0.0 | 0.00 | 0.16 | 0.00 | 94 | 1053.7 |
| 20260830234720 | 60 | 180 | 5.0 | 0.0 | 0.00 | 0.16 | 0.00 | 94 | 1053.7 |
| 20260830234607 | 61 | 157 | 5.0 | 0.0 | 0.00 | 0.16 | 0.00 | 94 | 1053.7 |
| 20260830234503 | 61 | 157 | 0.0 | 0.0 | 0.00 | 0.16 | 0.00 | 94 | 1053.8 |
| 20260830234357 | 61 | 157 | 0.0 | 0.0 | 0.00 | 0.16 | 0.00 | 94 | 1053.7 |
| 20260830234235 | 61 | 180 | 0.0 | 0.0 | 0.00 | 0.16 | 0.00 | 94 | 1053.8 |
| 20260830234115 | 61 | 157 | 2.0 | 0.0 | 0.00 | 0.16 | 0.00 | 94 | 1053.8 |
| 20260830234003 | 61 | 180 | 3.0 | 0.0 | 0.00 | 0.16 | 0.00 | 94 | 1053.8 |
| 20260830233858 | 61 | 135 | 0.0 | 0.0 | 0.00 | 0.16 | 0.00 | 94 | 1053.8 |
| 20260830233752 | 61 | 157 | 1.0 | 0.0 | 0.00 | 0.16 | 0.00 | 94 | 1053.8 |
| 20260830233648 | 61 | 157 | 0.0 | 0.0 | 0.00 | 0.16 | 0.00 | 94 | 1053.8 |
| 20260830233543 | 61 | 157 | 0.0 | 0.0 | 0.00 | 0.16 | 0.00 | 94 | 1053.8 |
| 20260830233436 | 61 | 157 | 7.0 | 0.0 | 0.00 | 0.16 | 0.00 | 94 | 1053.9 |
| 20260830233324 | 61 | 135 | 2.0 | 0.0 | 0.00 | 0.16 | 0.00 | 94 | 1053.9 |
| 20260830233213 | 61 | 157 | 0.0 | 0.0 | 0.00 | 0.16 | 0.00 | 94 | 1053.9 |
| 20260830233105 | 61 | 157 | 6.0 | 0.0 | 0.00 | 0.16 | 0.00 | 93 | 1053.9 |
| 20260830232952 | 61 | 180 | 0.0 | 0.0 | 0.00 | 0.16 | 0.00 | 93 | 1053.9 |
| 20260830232839 | 61 | 135 | 2.0 | 0.0 | 0.00 | 0.16 | 0.00 | 94 | 1053.9 |
| 20260830232727 | 61 | 157 | 4.0 | 0.0 | 0.00 | 0.16 | 0.00 | 94 | 1053.9 |
| 20260830232621 | 61 | 180 | 0.0 | 0.0 | 0.00 | 0.16 | 0.00 | 93 | 1054.0 |
| 20260830232510 | 61 | 180 | 0.0 | 0.0 | 0.00 | 0.16 | 0.00 | 93 | 1053.9 |
| 20260830232402 | 61 | 135 | 0.0 | 0.0 | 0.00 | 0.16 | 0.00 | 93 | 1053.9 |
| 20260830232251 | 61 | 180 | 6.0 | 0.0 | 0.00 | 0.16 | 0.00 | 93 | 1054.0 |
| 20260830232145 | 61 | 157 | 0.0 | 0.0 | 0.00 | 0.16 | 0.00 | 93 | 1054.0 |
| 20260830232031 | 61 | 157 | 5.0 | 0.0 | 0.00 | 0.16 | 0.00 | 93 | 1054.0 |
| 20260830231918 | 61 | 202 | 0.0 | 0.0 | 0.00 | 0.16 | 0.00 | 93 | 1054.0 |
| 20260830231758 | 61 | 180 | 0.0 | 0.0 | 0.00 | 0.16 | 0.00 | 93 | 1053.9 |
| 20260830231652 | 61 | 135 | 4.0 | 0.0 | 0.00 | 0.16 | 0.00 | 93 | 1054.0 |
| 20260830231547 | 61 | 135 | 0.0 | 0.0 | 0.00 | 0.16 | 0.00 | 93 | 1054.0 |
| 20260830231426 | 61 | 157 | 0.0 | 0.0 | 0.00 | 0.16 | 0.00 | 93 | 1053.9 |
| 20260830231304 | 61 | 157 | 2.0 | 0.0 | 0.00 | 0.16 | 0.00 | 93 | 1054.0 |
| 20260830231135 | 61 | 135 | 0.0 | 0.0 | 0.00 | 0.16 | 0.00 | 93 | 1054.0 |
| 20260830231024 | 61 | 157 | 4.0 | 0.0 | 0.00 | 0.16 | 0.00 | 93 | 1054.0 |
| 20260830230917 | 61 | 157 | 0.0 | 0.0 | 0.00 | 0.16 | 0.00 | 93 | 1054.1 |
| 20260830230756 | 61 | 157 | 0.0 | 0.0 | 0.00 | 0.16 | 0.00 | 93 | 1054.1 |
| 20260830230652 | 61 | 157 | 0.0 | 0.0 | 0.00 | 0.16 | 0.00 | 93 | 1054.1 |
| 20260830230545 | 61 | 157 | 0.0 | 0.0 | 0.00 | 0.16 | 0.00 | 93 | 1054.1 |
| 20260830230424 | 61 | 157 | 0.0 | 0.0 | 0.00 | 0.16 | 0.00 | 93 | 1054.1 |
| 20260830230304 | 61 | 157 | 0.0 | 0.0 | 0.00 | 0.16 | 0.00 | 93 | 1054.1 |
| 20260830230150 | 61 | 180 | 0.0 | 0.0 | 0.00 | 0.16 | 0.00 | 93 | 1054.2 |
| 20260830230038 | 61 | 180 | 0.0 | 0.0 | 0.00 | 0.16 | 0.00 | 93 | 1054.1 |
| 20260830225924 | 61 | 157 | 0.0 | 0.0 | 0.00 | 0.16 | 0.00 | 93 | 1054.2 |
| 20260830225802 | 61 | 157 | 0.0 | 0.0 | 0.00 | 0.16 | 0.00 | 93 | 1054.3 |
| 20260830225642 | 61 | 157 | 0.0 | 0.0 | 0.00 | 0.16 | 0.00 | 93 | 1054.2 |
| 20260830225537 | 61 | 157 | 0.0 | 0.0 | 0.00 | 0.16 | 0.00 | 93 | 1054.3 |
| 20260830225416 | 61 | 180 | 0.0 | 0.0 | 0.00 | 0.16 | 0.00 | 93 | 1054.3 |
| 20260830225313 | 61 | 180 | 0.0 | 0.0 | 0.00 | 0.16 | 0.00 | 93 | 1054.3 |
| 20260830225159 | 61 | 180 | 0.0 | 0.0 | 0.00 | 0.16 | 0.00 | 93 | 1054.2 |
| 20260830225030 | 61 | 180 | 0.0 | 0.0 | 0.00 | 0.16 | 0.00 | 93 | 1054.4 |
| 20260830224908 | 61 | 180 | 0.0 | 0.0 | 0.00 | 0.16 | 0.00 | 93 | 1054.4 |
| 20260830224737 | 61 | 180 | 0.0 | 0.0 | 0.00 | 0.16 | 0.00 | 93 | 1054.4 |
| 20260830224626 | 61 | 180 | 0.0 | 0.0 | 0.00 | 0.16 | 0.00 | 93 | 1054.3 |
| 20260830224519 | 61 | 180 | 3.0 | 0.0 | 0.00 | 0.16 | 0.00 | 93 | 1054.4 |
| 20260830224406 | 61 | 180 | 0.0 | 0.0 | 0.00 | 0.16 | 0.00 | 93 | 1054.3 |
| 20260830224253 | 61 | 157 | 0.0 | 0.0 | 0.00 | 0.16 | 0.00 | 93 | 1054.3 |
| 20260830224131 | 61 | 202 | 0.0 | 0.0 | 0.00 | 0.16 | 0.00 | 93 | 1054.4 |
| 20260830224012 | 61 | 180 | 0.0 | 0.0 | 0.00 | 0.16 | 0.00 | 93 | 1054.4 |
| 20260830223906 | 61 | 180 | 0.0 | 0.0 | 0.00 | 0.16 | 0.00 | 93 | 1054.3 |
| 20260830223744 | 61 | 180 | 0.0 | 0.0 | 0.00 | 0.16 | 0.00 | 93 | 1054.4 |
| 20260830223625 | 61 | 180 | 0.0 | 0.0 | 0.00 | 0.16 | 0.00 | 93 | 1054.4 |
| 20260830223518 | 61 | 180 | 0.0 | 0.0 | 0.00 | 0.16 | 0.00 | 93 | 1054.4 |
| 20260830223405 | 61 | 180 | 0.0 | 0.0 | 0.00 | 0.16 | 0.00 | 93 | 1054.4 |
| 20260830223300 | 61 | 180 | 0.0 | 0.0 | 0.00 | 0.16 | 0.00 | 93 | 1054.5 |
| 20260830223130 | 61 | 180 | 0.0 | 0.0 | 0.00 | 0.16 | 0.00 | 93 | 1054.5 |
| 20260830223017 | 61 | 180 | 0.0 | 0.0 | 0.00 | 0.16 | 0.00 | 93 | 1054.5 |
| 20260830222912 | 61 | 180 | 0.0 | 0.0 | 0.00 | 0.16 | 0.00 | 93 | 1054.5 |
| 20260830222807 | 61 | 180 | 0.0 | 0.0 | 0.00 | 0.16 | 0.00 | 93 | 1054.4 |
| 20260830222656 | 61 | 157 | 0.0 | 0.0 | 0.00 | 0.16 | 0.00 | 93 | 1054.4 |
| 20260830222551 | 61 | 180 | 4.0 | 0.0 | 0.00 | 0.16 | 0.00 | 93 | 1054.4 |
| 20260830222444 | 61 | 180 | 0.0 | 0.0 | 0.00 | 0.16 | 0.00 | 93 | 1054.4 |
| 20260830222323 | 61 | 180 | 0.0 | 0.0 | 0.00 | 0.16 | 0.00 | 93 | 1054.4 |
| 20260830222210 | 61 | 180 | 0.0 | 0.0 | 0.00 | 0.16 | 0.00 | 93 | 1054.4 |
| 20260830222104 | 61 | 180 | 0.0 | 0.0 | 0.00 | 0.16 | 0.00 | 93 | 1054.4 |
| 20260830221951 | 61 | 180 | 0.0 | 0.0 | 0.00 | 0.16 | 0.00 | 93 | 1054.4 |
| 20260830221840 | 61 | 180 | 0.0 | 0.0 | 0.00 | 0.16 | 0.00 | 93 | 1054.4 |
| 20260830221725 | 62 | 180 | 0.0 | 0.0 | 0.00 | 0.16 | 0.00 | 93 | 1054.3 |
| 20260830221612 | 62 | 180 | 0.0 | 0.0 | 0.00 | 0.16 | 0.00 | 93 | 1054.4 |
| 20260830221508 | 62 | 157 | 0.0 | 0.0 | 0.00 | 0.16 | 0.00 | 93 | 1054.4 |
| 20260830221354 | 62 | 157 | 0.0 | 0.0 | 0.00 | 0.16 | 0.00 | 93 | 1054.4 |
| 20260830221233 | 62 | 157 | 0.0 | 0.0 | 0.00 | 0.16 | 0.00 | 93 | 1054.4 |
| 20260830221111 | 62 | 157 | 0.0 | 0.0 | 0.00 | 0.16 | 0.00 | 93 | 1054.5 |
| 20260830220950 | 62 | 180 | 5.0 | 0.0 | 0.00 | 0.16 | 0.00 | 93 | 1054.5 |
| 20260830220838 | 62 | 180 | 0.0 | 0.0 | 0.00 | 0.16 | 0.00 | 92 | 1054.4 |
| 20260830220732 | 62 | 180 | 0.0 | 0.0 | 0.00 | 0.16 | 0.00 | 92 | 1054.4 |
| 20260830220627 | 62 | 180 | 0.0 | 0.0 | 0.00 | 0.16 | 0.00 | 92 | 1054.6 |
| 20260830220516 | 62 | 180 | 0.0 | 0.0 | 0.00 | 0.16 | 0.00 | 92 | 1054.6 |
| 20260830220409 | 62 | 180 | 0.0 | 0.0 | 0.00 | 0.16 | 0.00 | 92 | 1054.6 |
| 20260830220249 | 62 | 180 | 0.0 | 0.0 | 0.00 | 0.16 | 0.00 | 92 | 1054.6 |
| 20260830220143 | 62 | 180 | 5.0 | 0.0 | 0.00 | 0.16 | 0.00 | 92 | 1054.7 |
| 20260830220030 | 62 | 180 | 0.0 | 0.0 | 0.00 | 0.16 | 0.00 | 92 | 1054.6 |
| 20260830215926 | 62 | 180 | 0.0 | 0.0 | 0.00 | 0.18 | 0.00 | 92 | 1054.6 |
| 20260830215820 | 62 | 180 | 0.0 | 0.0 | 0.00 | 0.18 | 0.00 | 92 | 1054.7 |
| 20260830215715 | 62 | 180 | 0.0 | 0.0 | 0.00 | 0.18 | 0.00 | 92 | 1054.6 |
| 20260830215555 | 62 | 180 | 4.0 | 0.0 | 0.00 | 0.18 | 0.00 | 92 | 1054.6 |
| 20260830215449 | 62 | 157 | 4.0 | 0.0 | 0.00 | 0.18 | 0.00 | 92 | 1054.6 |
| 20260830215344 | 62 | 157 | 0.0 | 0.0 | 0.00 | 0.18 | 0.00 | 92 | 1054.7 |
| 20260830215232 | 62 | 180 | 0.0 | 0.0 | 0.00 | 0.18 | 0.00 | 92 | 1054.8 |
| 20260830215126 | 62 | 180 | 0.0 | 0.0 | 0.00 | 0.18 | 0.00 | 92 | 1054.7 |
| 20260830215023 | 62 | 180 | 0.0 | 0.0 | 0.00 | 0.18 | 0.00 | 92 | 1054.8 |
| 20260830214915 | 62 | 180 | 0.0 | 0.0 | 0.00 | 0.18 | 0.00 | 92 | 1054.9 |
| 20260830214802 | 62 | 180 | 3.0 | 0.0 | 0.00 | 0.18 | 0.00 | 92 | 1054.9 |
| 20260830214649 | 62 | 180 | 0.0 | 0.0 | 0.00 | 0.18 | 0.00 | 92 | 1054.9 |
| 20260830214546 | 62 | 180 | 0.0 | 0.0 | 0.00 | 0.18 | 0.00 | 92 | 1054.9 |
| 20260830214441 | 62 | 180 | 0.0 | 0.0 | 0.00 | 0.18 | 0.00 | 92 | 1054.9 |
| 20260830214334 | 62 | 180 | 0.0 | 0.0 | 0.00 | 0.18 | 0.00 | 92 | 1054.9 |
| 20260830214213 | 62 | 180 | 0.0 | 0.0 | 0.00 | 0.18 | 0.00 | 92 | 1054.9 |
| 20260830214100 | 62 | 180 | 0.0 | 0.0 | 0.00 | 0.18 | 0.00 | 92 | 1054.8 |
| 20260830213954 | 62 | 180 | 0.0 | 0.0 | 0.00 | 0.18 | 0.00 | 92 | 1054.9 |
| 20260830213825 | 62 | 180 | 0.0 | 0.0 | 0.00 | 0.18 | 0.00 | 92 | 1054.9 |
| 20260830213712 | 62 | 180 | 0.0 | 0.0 | 0.00 | 0.18 | 0.00 | 92 | 1054.9 |
| 20260830213607 | 62 | 180 | 0.0 | 0.0 | 0.00 | 0.18 | 0.00 | 92 | 1054.9 |
| 20260830213454 | 62 | 180 | 0.0 | 0.0 | 0.00 | 0.18 | 0.00 | 92 | 1054.9 |
| 20260830213349 | 62 | 180 | 0.0 | 0.0 | 0.00 | 0.18 | 0.00 | 92 | 1054.9 |
| 20260830213238 | 62 | 180 | 0.0 | 0.0 | 0.00 | 0.18 | 0.00 | 92 | 1055.0 |
| 20260830213130 | 62 | 180 | 0.0 | 0.0 | 0.00 | 0.18 | 0.00 | 92 | 1054.9 |
| 20260830213017 | 62 | 180 | 0.0 | 0.0 | 0.00 | 0.18 | 0.00 | 91 | 1055.0 |
| 20260830212904 | 62 | 180 | 0.0 | 0.0 | 0.00 | 0.18 | 0.00 | 91 | 1055.0 |
| 20260830212758 | 62 | 180 | 0.0 | 0.0 | 0.00 | 0.18 | 0.00 | 91 | 1054.9 |
| 20260830212629 | 62 | 180 | 0.0 | 0.0 | 0.00 | 0.18 | 0.00 | 91 | 1054.9 |
| 20260830212516 | 62 | 180 | 1.0 | 0.0 | 0.00 | 0.18 | 0.00 | 91 | 1054.9 |
| 20260830212410 | 62 | 180 | 0.0 | 0.0 | 0.00 | 0.18 | 0.00 | 91 | 1054.9 |
| 20260830212306 | 62 | 180 | 0.0 | 0.0 | 0.00 | 0.18 | 0.00 | 91 | 1054.9 |
| 20260830212159 | 62 | 180 | 0.0 | 0.0 | 0.00 | 0.18 | 0.00 | 91 | 1054.9 |
| 20260830212052 | 62 | 180 | 0.0 | 0.0 | 0.00 | 0.18 | 0.00 | 91 | 1054.8 |
| 20260830211931 | 62 | 180 | 0.0 | 0.0 | 0.00 | 0.18 | 0.00 | 91 | 1054.8 |
| 20260830211817 | 62 | 180 | 1.0 | 0.0 | 0.00 | 0.18 | 0.00 | 91 | 1054.9 |
| 20260830211710 | 62 | 180 | 0.0 | 0.0 | 0.00 | 0.18 | 0.00 | 91 | 1054.9 |
| 20260830211555 | 62 | 157 | 4.0 | 0.0 | 0.00 | 0.18 | 0.00 | 91 | 1055.0 |
| 20260830211435 | 62 | 180 | 0.0 | 0.0 | 0.00 | 0.18 | 0.00 | 91 | 1054.8 |
| 20260830211322 | 62 | 202 | 0.0 | 0.0 | 0.00 | 0.18 | 0.00 | 91 | 1055.0 |
| 20260830211208 | 62 | 202 | 0.0 | 0.0 | 0.00 | 0.18 | 0.00 | 91 | 1054.9 |
| 20260830211102 | 62 | 202 | 0.0 | 0.0 | 0.00 | 0.18 | 0.00 | 91 | 1054.8 |
| 20260830210948 | 62 | 202 | 0.0 | 0.0 | 0.00 | 0.18 | 0.00 | 91 | 1055.0 |
| 20260830210826 | 62 | 202 | 0.0 | 0.0 | 0.00 | 0.18 | 0.00 | 91 | 1055.0 |
| 20260830210713 | 62 | 202 | 0.0 | 0.0 | 0.00 | 0.18 | 0.00 | 91 | 1055.0 |
| 20260830210607 | 62 | 202 | 0.0 | 0.0 | 0.00 | 0.18 | 0.00 | 91 | 1054.9 |
| 20260830210502 | 63 | 202 | 0.0 | 0.0 | 0.00 | 0.18 | 0.00 | 91 | 1054.8 |
| 20260830210356 | 63 | 202 | 0.0 | 0.0 | 0.00 | 0.18 | 0.00 | 91 | 1054.9 |
| 20260830210244 | 63 | 202 | 0.0 | 0.0 | 0.00 | 0.18 | 0.00 | 91 | 1054.9 |
| 20260830210122 | 63 | 202 | 0.0 | 0.0 | 0.00 | 0.18 | 0.00 | 91 | 1054.8 |
| 20260830210007 | 63 | 202 | 0.0 | 0.0 | 0.00 | 0.20 | 0.00 | 91 | 1054.7 |
| 20260830205837 | 63 | 180 | 0.0 | 0.0 | 0.00 | 0.20 | 0.00 | 91 | 1054.7 |
| 20260830205720 | 63 | 180 | 0.0 | 0.0 | 0.00 | 0.20 | 0.00 | 91 | 1054.7 |
| 20260830205615 | 63 | 180 | 0.0 | 0.0 | 0.00 | 0.20 | 0.00 | 91 | 1054.7 |
| 20260830205508 | 63 | 180 | 0.0 | 0.0 | 0.00 | 0.20 | 0.00 | 91 | 1054.6 |
| 20260830205346 | 63 | 180 | 0.0 | 0.0 | 0.00 | 0.20 | 0.00 | 91 | 1054.7 |
| 20260830205233 | 63 | 180 | 0.0 | 0.0 | 0.00 | 0.20 | 0.00 | 91 | 1054.8 |
| 20260830205126 | 63 | 180 | 0.0 | 0.0 | 0.00 | 0.20 | 0.00 | 91 | 1054.8 |
| 20260830205012 | 63 | 180 | 0.0 | 0.0 | 0.00 | 0.20 | 0.00 | 91 | 1054.7 |
| 20260830204905 | 63 | 202 | 0.0 | 0.0 | 0.00 | 0.20 | 0.00 | 91 | 1054.7 |
| 20260830204800 | 63 | 180 | 0.0 | 0.0 | 0.00 | 0.20 | 0.00 | 91 | 1054.7 |
| 20260830204654 | 63 | 202 | 0.0 | 0.0 | 0.00 | 0.20 | 0.00 | 91 | 1054.6 |
| 20260830204547 | 63 | 202 | 0.0 | 0.0 | 0.00 | 0.20 | 0.00 | 91 | 1054.7 |
| 20260830204442 | 63 | 202 | 0.0 | 0.0 | 0.00 | 0.20 | 0.00 | 91 | 1054.6 |
| 20260830204329 | 63 | 202 | 0.0 | 0.0 | 0.00 | 0.20 | 0.00 | 91 | 1054.7 |
| 20260830204209 | 63 | 202 | 0.0 | 0.0 | 0.00 | 0.20 | 0.00 | 91 | 1054.7 |
| 20260830204105 | 63 | 202 | 0.0 | 0.0 | 0.00 | 0.20 | 0.00 | 91 | 1054.8 |
| 20260830203957 | 63 | 202 | 0.0 | 0.0 | 0.00 | 0.20 | 0.00 | 91 | 1054.8 |
| 20260830203845 | 63 | 202 | 0.0 | 0.0 | 0.00 | 0.20 | 0.00 | 91 | 1054.8 |
| 20260830203739 | 63 | 202 | 0.0 | 0.0 | 0.00 | 0.20 | 0.00 | 91 | 1055.0 |
| 20260830203634 | 64 | 202 | 0.0 | 0.0 | 0.00 | 0.20 | 0.00 | 91 | 1054.9 |
| 20260830203520 | 64 | 202 | 5.0 | 0.0 | 0.00 | 0.20 | 0.00 | 91 | 1055.0 |
| 20260830203408 | 64 | 202 | 1.0 | 0.0 | 0.00 | 0.20 | 0.00 | 91 | 1055.0 |
| 20260830203301 | 64 | 202 | 6.0 | 0.0 | 0.00 | 0.20 | 0.00 | 91 | 1054.9 |
| 20260830203138 | 64 | 202 | 0.0 | 0.0 | 0.00 | 0.20 | 0.00 | 91 | 1054.8 |
| 20260830203016 | 64 | 202 | 2.0 | 0.0 | 0.00 | 0.20 | 0.00 | 91 | 1054.8 |
| 20260830202855 | 64 | 202 | 5.0 | 0.0 | 0.00 | 0.20 | 0.00 | 91 | 1054.8 |
| 20260830202734 | 64 | 202 | 0.0 | 0.0 | 0.00 | 0.20 | 0.00 | 91 | 1054.8 |
| 20260830202629 | 64 | 202 | 0.0 | 0.0 | 0.00 | 0.20 | 0.00 | 91 | 1054.8 |
| 20260830202515 | 64 | 202 | 0.0 | 0.0 | 0.00 | 0.20 | 0.00 | 91 | 1054.8 |
| 20260830202401 | 64 | 202 | 0.0 | 0.0 | 0.00 | 0.20 | 0.00 | 91 | 1054.8 |
| 20260830202255 | 64 | 202 | 0.0 | 0.0 | 0.00 | 0.20 | 0.00 | 91 | 1055.0 |
| 20260830202148 | 64 | 202 | 0.0 | 0.0 | 0.00 | 0.20 | 0.00 | 91 | 1055.0 |
| 20260830202028 | 64 | 202 | 0.0 | 0.0 | 0.00 | 0.20 | 0.00 | 91 | 1055.0 |
| 20260830201920 | 64 | 202 | 0.0 | 0.0 | 0.00 | 0.20 | 0.00 | 91 | 1055.0 |
| 20260830201757 | 64 | 202 | 0.0 | 0.0 | 0.00 | 0.20 | 0.00 | 91 | 1055.0 |
| 20260830201628 | 64 | 202 | 0.0 | 0.0 | 0.00 | 0.20 | 0.00 | 91 | 1055.0 |
| 20260830201515 | 64 | 202 | 0.0 | 0.0 | 0.00 | 0.20 | 0.00 | 91 | 1054.9 |
| 20260830201402 | 64 | 202 | 0.0 | 0.0 | 0.00 | 0.20 | 0.00 | 91 | 1055.0 |
| 20260830201257 | 64 | 202 | 1.0 | 0.0 | 0.00 | 0.20 | 0.00 | 91 | 1055.0 |
| 20260830201142 | 64 | 202 | 2.0 | 0.0 | 0.00 | 0.20 | 0.00 | 91 | 1055.0 |
| 20260830201036 | 64 | 202 | 0.0 | 0.0 | 0.00 | 0.20 | 0.00 | 91 | 1055.0 |
| 20260830200914 | 64 | 202 | 4.0 | 0.0 | 0.00 | 0.20 | 0.00 | 91 | 1054.9 |
| 20260830200753 | 64 | 202 | 0.0 | 0.0 | 0.00 | 0.20 | 0.00 | 90 | 1055.1 |
| 20260830200640 | 64 | 202 | 0.0 | 0.0 | 0.00 | 0.20 | 0.00 | 90 | 1055.0 |
| 20260830200527 | 64 | 202 | 0.0 | 0.0 | 0.00 | 0.20 | 0.00 | 90 | 1055.0 |
| 20260830200421 | 64 | 202 | 0.0 | 0.0 | 0.00 | 0.20 | 0.00 | 90 | 1055.0 |
| 20260830200316 | 64 | 202 | 0.0 | 0.0 | 0.00 | 0.20 | 0.00 | 90 | 1055.0 |
| 20260830200155 | 64 | 202 | 0.0 | 0.0 | 0.00 | 0.20 | 0.00 | 90 | 1055.1 |
| 20260830200040 | 64 | 202 | 0.0 | 0.0 | 0.00 | 0.20 | 0.00 | 90 | 1055.1 |
| 20260830195935 | 64 | 202 | 0.0 | 0.0 | 0.00 | 0.20 | 0.00 | 90 | 1055.1 |
| 20260830195821 | 64 | 202 | 0.0 | 0.0 | 0.00 | 0.20 | 0.00 | 90 | 1055.1 |
| 20260830195711 | 64 | 202 | 0.0 | 0.0 | 0.00 | 0.20 | 0.00 | 90 | 1055.1 |
| 20260830195604 | 64 | 202 | 0.0 | 0.0 | 0.00 | 0.20 | 0.00 | 90 | 1055.1 |
| 20260830195450 | 64 | 202 | 0.0 | 0.0 | 0.00 | 0.20 | 0.00 | 90 | 1055.1 |
| 20260830195329 | 64 | 225 | 0.0 | 0.0 | 0.00 | 0.20 | 0.00 | 90 | 1055.1 |
| 20260830195214 | 64 | 247 | 0.0 | 0.0 | 0.00 | 0.20 | 0.00 | 90 | 1055.1 |
| 20260830195102 | 64 | 247 | 0.0 | 0.0 | 0.00 | 0.20 | 0.00 | 89 | 1055.1 |
| 20260830194949 | 64 | 247 | 0.0 | 0.0 | 0.00 | 0.20 | 0.00 | 89 | 1055.1 |
| 20260830194836 | 64 | 247 | 0.0 | 0.0 | 0.00 | 0.20 | 0.00 | 89 | 1055.1 |
| 20260830194722 | 64 | 247 | 0.0 | 0.0 | 0.00 | 0.20 | 0.00 | 89 | 1055.1 |
| 20260830194602 | 64 | 247 | 0.0 | 0.0 | 0.00 | 0.20 | 0.00 | 89 | 1055.1 |
| 20260830194458 | 64 | 247 | 0.0 | 0.0 | 0.00 | 0.20 | 0.00 | 89 | 1055.1 |
| 20260830194351 | 64 | 247 | 0.0 | 0.0 | 0.00 | 0.20 | 0.00 | 89 | 1055.1 |
| 20260830194221 | 64 | 247 | 0.0 | 0.0 | 0.00 | 0.20 | 0.00 | 89 | 1055.1 |
| 20260830194111 | 64 | 247 | 0.0 | 0.0 | 0.00 | 0.20 | 0.00 | 89 | 1055.1 |
| 20260830194003 | 64 | 247 | 0.0 | 0.0 | 0.00 | 0.20 | 0.00 | 89 | 1055.1 |
| 20260830193850 | 64 | 247 | 0.0 | 0.0 | 0.00 | 0.20 | 0.00 | 89 | 1055.1 |
| 20260830193746 | 64 | 247 | 0.0 | 0.0 | 0.00 | 0.20 | 0.00 | 89 | 1055.1 |
| 20260830193641 | 64 | 247 | 0.0 | 0.0 | 0.00 | 0.20 | 0.00 | 89 | 1055.1 |
| 20260830193535 | 64 | 247 | 0.0 | 0.0 | 0.00 | 0.20 | 0.00 | 89 | 1055.1 |
| 20260830193430 | 64 | 247 | 0.0 | 0.0 | 0.00 | 0.20 | 0.00 | 89 | 1055.1 |
| 20260830193308 | 64 | 247 | 0.0 | 0.0 | 0.00 | 0.20 | 0.00 | 89 | 1055.2 |
| 20260830193155 | 64 | 247 | 0.0 | 0.0 | 0.00 | 0.20 | 0.00 | 89 | 1055.2 |
| 20260830193043 | 64 | 247 | 0.0 | 0.0 | 0.00 | 0.20 | 0.00 | 89 | 1055.2 |
| 20260830192937 | 64 | 247 | 0.0 | 0.0 | 0.00 | 0.20 | 0.00 | 89 | 1055.2 |
| 20260830192825 | 64 | 247 | 0.0 | 0.0 | 0.00 | 0.20 | 0.00 | 89 | 1055.2 |
| 20260830192712 | 64 | 247 | 0.0 | 0.0 | 0.00 | 0.20 | 0.00 | 89 | 1055.2 |
| 20260830192558 | 64 | 247 | 0.0 | 0.0 | 0.00 | 0.20 | 0.00 | 89 | 1055.2 |
| 20260830192446 | 64 | 247 | 0.0 | 0.0 | 0.00 | 0.20 | 0.00 | 89 | 1055.2 |
| 20260830192340 | 64 | 247 | 0.0 | 0.0 | 0.00 | 0.20 | 0.00 | 89 | 1055.2 |
| 20260830192228 | 64 | 247 | 0.0 | 0.0 | 0.00 | 0.20 | 0.00 | 89 | 1055.2 |
| 20260830192122 | 64 | 247 | 0.0 | 0.0 | 0.00 | 0.20 | 0.00 | 89 | 1055.2 |
| 20260830192001 | 64 | 247 | 0.0 | 0.0 | 0.00 | 0.20 | 0.00 | 89 | 1055.2 |
| 20260830191858 | 64 | 247 | 0.0 | 0.0 | 0.00 | 0.20 | 0.00 | 89 | 1055.3 |
| 20260830191751 | 64 | 247 | 0.0 | 0.0 | 0.00 | 0.20 | 0.00 | 89 | 1055.3 |
| 20260830191637 | 64 | 247 | 0.0 | 0.0 | 0.00 | 0.20 | 0.00 | 89 | 1055.3 |
| 20260830191516 | 64 | 247 | 0.0 | 0.0 | 0.00 | 0.20 | 0.00 | 89 | 1055.3 |
| 20260830191406 | 64 | 247 | 0.0 | 0.0 | 0.00 | 0.20 | 0.00 | 89 | 1055.3 |
| 20260830191259 | 64 | 247 | 0.0 | 0.0 | 0.00 | 0.20 | 0.00 | 89 | 1055.2 |
| 20260830191146 | 64 | 247 | 0.0 | 0.0 | 0.00 | 0.20 | 0.00 | 88 | 1055.3 |
| 20260830191040 | 64 | 247 | 0.0 | 0.0 | 0.00 | 0.20 | 0.00 | 88 | 1055.3 |
| 20260830190935 | 64 | 247 | 0.0 | 0.0 | 0.00 | 0.20 | 0.00 | 88 | 1055.2 |
| 20260830190759 | 64 | 247 | 0.0 | 0.0 | 0.00 | 0.20 | 0.00 | 88 | 1055.2 |
| 20260830190653 | 64 | 247 | 0.0 | 0.0 | 0.00 | 0.20 | 0.00 | 88 | 1055.3 |
| 20260830190548 | 64 | 247 | 0.0 | 0.0 | 0.00 | 0.20 | 0.00 | 88 | 1055.2 |
| 20260830190437 | 64 | 247 | 0.0 | 0.0 | 0.00 | 0.20 | 0.00 | 88 | 1055.4 |
| 20260830190330 | 64 | 247 | 0.0 | 0.0 | 0.00 | 0.20 | 0.00 | 88 | 1055.4 |
| 20260830190216 | 64 | 247 | 0.0 | 0.0 | 0.00 | 0.20 | 0.00 | 88 | 1055.3 |
| 20260830190056 | 64 | 247 | 0.0 | 0.0 | 0.00 | 0.20 | 0.00 | 88 | 1055.3 |
| 20260830185951 | 64 | 247 | 0.0 | 0.0 | 0.00 | 0.20 | 0.00 | 88 | 1055.2 |
| 20260830185845 | 64 | 225 | 0.0 | 0.0 | 0.00 | 0.20 | 0.00 | 88 | 1055.2 |
| 20260830185724 | 64 | 225 | 0.0 | 0.0 | 0.00 | 0.20 | 0.00 | 88 | 1055.2 |
| 20260830185602 | 64 | 225 | 0.0 | 0.0 | 0.00 | 0.20 | 0.00 | 87 | 1055.3 |
| 20260830185434 | 65 | 247 | 1.0 | 0.0 | 0.00 | 0.20 | 0.00 | 87 | 1055.2 |
| 20260830185320 | 65 | 247 | 0.0 | 0.0 | 0.00 | 0.20 | 0.00 | 87 | 1055.2 |
| 20260830185215 | 65 | 247 | 0.0 | 0.0 | 0.00 | 0.20 | 0.00 | 87 | 1055.2 |
| 20260830185054 | 65 | 247 | 2.0 | 0.0 | 0.00 | 0.20 | 0.00 | 87 | 1055.2 |
| 20260830184933 | 65 | 247 | 0.0 | 0.0 | 0.00 | 0.20 | 0.00 | 87 | 1055.2 |
| 20260830184819 | 65 | 270 | 3.0 | 0.0 | 0.00 | 0.20 | 0.00 | 87 | 1055.2 |
| 20260830184658 | 65 | 292 | 2.0 | 0.0 | 0.00 | 0.20 | 0.00 | 87 | 1055.3 |
| 20260830184546 | 65 | 247 | 0.0 | 0.0 | 0.00 | 0.20 | 0.00 | 86 | 1055.2 |
| 20260830184432 | 65 | 247 | 3.0 | 0.0 | 0.00 | 0.20 | 0.00 | 86 | 1055.2 |
| 20260830184319 | 65 | 270 | 0.0 | 0.0 | 0.00 | 0.20 | 0.00 | 86 | 1055.2 |
| 20260830184204 | 66 | 270 | 0.0 | 0.0 | 0.00 | 0.20 | 0.00 | 85 | 1055.2 |
| 20260830184050 | 66 | 315 | 2.0 | 0.0 | 0.00 | 0.20 | 0.00 | 85 | 1055.2 |
| 20260830183921 | 66 | 225 | 4.0 | 0.0 | 0.00 | 0.20 | 0.00 | 85 | 1055.2 |
| 20260830183800 | 66 | 292 | 4.0 | 0.0 | 0.00 | 0.20 | 0.00 | 85 | 1055.2 |
| 20260830183639 | 66 | 270 | 0.0 | 0.0 | 0.00 | 0.20 | 0.00 | 85 | 1055.2 |
| 20260830183534 | 66 | 270 | 0.0 | 0.0 | 0.00 | 0.20 | 0.00 | 84 | 1055.2 |
| 20260830183420 | 66 | 247 | 0.0 | 0.0 | 0.00 | 0.20 | 0.00 | 84 | 1055.1 |
| 20260830183252 | 66 | 247 | 0.0 | 0.0 | 0.00 | 0.20 | 0.00 | 84 | 1055.2 |
| 20260830183140 | 66 | 247 | 0.0 | 0.0 | 0.00 | 0.20 | 0.00 | 84 | 1055.2 |
| 20260830183032 | 66 | 202 | 0.0 | 0.0 | 0.00 | 0.20 | 0.00 | 84 | 1055.2 |
| 20260830182912 | 66 | 202 | 0.0 | 0.0 | 0.00 | 0.20 | 0.00 | 84 | 1055.2 |
| 20260830182750 | 66 | 180 | 0.0 | 0.0 | 0.00 | 0.20 | 0.00 | 83 | 1055.2 |
| 20260830182629 | 67 | 270 | 0.0 | 0.0 | 0.00 | 0.20 | 0.00 | 83 | 1055.1 |
| 20260830182508 | 67 | 270 | 0.0 | 0.0 | 0.00 | 0.20 | 0.00 | 83 | 1055.0 |
| 20260830182401 | 67 | 270 | 0.0 | 0.0 | 0.00 | 0.20 | 0.00 | 83 | 1055.0 |
| 20260830182234 | 67 | 270 | 0.0 | 0.0 | 0.00 | 0.20 | 0.00 | 83 | 1055.1 |
| 20260830182130 | 67 | 270 | 0.0 | 0.0 | 0.00 | 0.20 | 0.00 | 83 | 1055.0 |
| 20260830182022 | 67 | 247 | 0.0 | 0.0 | 0.00 | 0.20 | 0.00 | 83 | 1055.0 |
| 20260830181909 | 67 | 247 | 0.0 | 0.0 | 0.00 | 0.20 | 0.00 | 83 | 1055.0 |
| 20260830181757 | 67 | 247 | 0.0 | 0.0 | 0.00 | 0.20 | 0.00 | 83 | 1055.0 |
| 20260830181635 | 67 | 270 | 0.0 | 0.0 | 0.00 | 0.20 | 0.00 | 83 | 1054.9 |
| 20260830181521 | 67 | 270 | 0.0 | 0.0 | 0.00 | 0.20 | 0.00 | 83 | 1054.9 |
| 20260830181354 | 67 | 270 | 0.0 | 0.0 | 0.00 | 0.20 | 0.00 | 83 | 1054.9 |
| 20260830181249 | 67 | 270 | 0.0 | 0.0 | 0.00 | 0.20 | 0.00 | 83 | 1054.8 |
| 20260830181141 | 67 | 270 | 0.0 | 0.0 | 0.00 | 0.20 | 0.00 | 83 | 1054.8 |
| 20260830181029 | 67 | 270 | 0.0 | 0.0 | 0.00 | 0.20 | 0.00 | 83 | 1055.0 |
| 20260830180918 | 67 | 247 | 0.0 | 0.0 | 0.00 | 0.20 | 0.00 | 83 | 1054.8 |
| 20260830180813 | 67 | 270 | 0.0 | 0.0 | 0.00 | 0.20 | 0.00 | 83 | 1054.9 |
| 20260830180707 | 67 | 247 | 0.0 | 0.0 | 0.00 | 0.20 | 0.00 | 83 | 1054.9 |
| 20260830180603 | 67 | 247 | 0.0 | 0.0 | 0.00 | 0.20 | 0.00 | 83 | 1054.8 |
| 20260830180456 | 67 | 247 | 0.0 | 0.0 | 0.00 | 0.20 | 0.00 | 82 | 1054.8 |
| 20260830180337 | 67 | 247 | 0.0 | 0.0 | 0.00 | 0.20 | 0.00 | 82 | 1054.9 |
| 20260830180230 | 67 | 247 | 0.0 | 0.0 | 0.00 | 0.20 | 0.00 | 82 | 1054.9 |
| 20260830180116 | 67 | 247 | 0.0 | 0.0 | 0.00 | 0.20 | 0.00 | 82 | 1054.9 |
| 20260830175956 | 67 | 247 | 0.0 | 0.0 | 0.00 | 0.20 | 0.00 | 82 | 1054.9 |
| 20260830175850 | 67 | 270 | 0.0 | 0.0 | 0.00 | 0.20 | 0.00 | 82 | 1054.9 |
| 20260830175729 | 67 | 270 | 0.0 | 0.0 | 0.00 | 0.20 | 0.00 | 82 | 1054.9 |
| 20260830175607 | 67 | 270 | 0.0 | 0.0 | 0.00 | 0.20 | 0.00 | 82 | 1054.8 |
| 20260830175446 | 67 | 270 | 0.0 | 0.0 | 0.00 | 0.20 | 0.00 | 82 | 1054.8 |
| 20260830175326 | 67 | 270 | 0.0 | 0.0 | 0.00 | 0.20 | 0.00 | 82 | 1054.7 |
| 20260830175213 | 67 | 270 | 0.0 | 0.0 | 0.00 | 0.20 | 0.00 | 82 | 1054.8 |
| 20260830175059 | 67 | 270 | 0.0 | 0.0 | 0.00 | 0.20 | 0.00 | 82 | 1054.8 |
| 20260830174937 | 67 | 270 | 0.0 | 0.0 | 0.00 | 0.20 | 0.00 | 82 | 1054.8 |
| 20260830174816 | 67 | 270 | 0.0 | 0.0 | 0.00 | 0.20 | 0.00 | 82 | 1054.7 |
| 20260830174647 | 67 | 270 | 0.0 | 0.0 | 0.00 | 0.20 | 0.00 | 81 | 1054.8 |
| 20260830174535 | 67 | 247 | 0.0 | 0.0 | 0.00 | 0.20 | 0.00 | 81 | 1054.8 |
| 20260830174430 | 68 | 270 | 0.0 | 0.0 | 0.00 | 0.20 | 0.00 | 81 | 1054.8 |
| 20260830174324 | 68 | 270 | 0.0 | 0.0 | 0.00 | 0.20 | 0.00 | 81 | 1054.7 |
| 20260830174213 | 68 | 270 | 0.0 | 0.0 | 0.00 | 0.20 | 0.00 | 81 | 1054.8 |
| 20260830174106 | 68 | 270 | 0.0 | 0.0 | 0.00 | 0.20 | 0.00 | 81 | 1054.8 |
| 20260830173945 | 68 | 270 | 0.0 | 0.0 | 0.00 | 0.20 | 0.00 | 81 | 1054.7 |
| 20260830173831 | 68 | 270 | 0.0 | 0.0 | 0.00 | 0.20 | 0.00 | 81 | 1054.7 |
| 20260830173712 | 68 | 247 | 0.0 | 0.0 | 0.00 | 0.20 | 0.00 | 81 | 1054.7 |
| 20260830173607 | 68 | 247 | 0.0 | 0.0 | 0.00 | 0.20 | 0.00 | 81 | 1054.8 |
| 20260830173452 | 68 | 247 | 0.0 | 0.0 | 0.00 | 0.20 | 0.00 | 81 | 1054.8 |
| 20260830173340 | 68 | 247 | 0.0 | 0.0 | 0.00 | 0.20 | 0.00 | 81 | 1054.8 |
| 20260830173234 | 68 | 247 | 0.0 | 0.0 | 0.00 | 0.20 | 0.00 | 81 | 1054.8 |
| 20260830173105 | 68 | 247 | 0.0 | 0.0 | 0.00 | 0.20 | 0.00 | 81 | 1054.8 |
| 20260830172945 | 68 | 270 | 0.0 | 0.0 | 0.00 | 0.20 | 0.00 | 80 | 1054.8 |
| 20260830172830 | 68 | 247 | 0.0 | 0.0 | 0.00 | 0.20 | 0.00 | 80 | 1054.8 |
| 20260830172718 | 68 | 270 | 0.0 | 0.0 | 0.00 | 0.20 | 0.00 | 80 | 1054.8 |
| 20260830172612 | 68 | 270 | 0.0 | 0.0 | 0.00 | 0.20 | 0.00 | 80 | 1054.8 |
| 20260830172459 | 68 | 270 | 0.0 | 0.0 | 0.00 | 0.20 | 0.00 | 80 | 1054.9 |
| 20260830172355 | 68 | 270 | 0.0 | 0.0 | 0.00 | 0.20 | 0.00 | 80 | 1054.8 |
| 20260830172242 | 68 | 247 | 0.0 | 0.0 | 0.00 | 0.20 | 0.00 | 80 | 1055.0 |
| 20260830172126 | 69 | 247 | 4.0 | 0.0 | 0.00 | 0.20 | 0.00 | 79 | 1054.9 |
| 20260830172003 | 69 | 247 | 0.0 | 0.0 | 0.00 | 0.20 | 0.00 | 79 | 1054.8 |
| 20260830171831 | 69 | 247 | 0.0 | 0.0 | 0.00 | 0.20 | 0.00 | 79 | 1054.8 |
| 20260830171718 | 69 | 270 | 2.0 | 0.0 | 0.00 | 0.20 | 0.00 | 79 | 1054.9 |
| 20260830171602 | 69 | 202 | 0.0 | 0.0 | 0.00 | 0.20 | 0.00 | 79 | 1054.9 |
| 20260830171442 | 69 | 225 | 5.0 | 0.0 | 0.00 | 0.20 | 0.00 | 79 | 1054.8 |
| 20260830171335 | 69 | 270 | 3.0 | 0.0 | 0.00 | 0.20 | 0.00 | 79 | 1054.8 |
| 20260830171221 | 69 | 270 | 0.0 | 0.0 | 0.00 | 0.20 | 0.00 | 78 | 1054.9 |
| 20260830171115 | 69 | 270 | 0.0 | 0.0 | 0.00 | 0.20 | 0.00 | 78 | 1054.8 |
| 20260830171000 | 69 | 247 | 0.0 | 0.0 | 0.00 | 0.20 | 0.00 | 78 | 1054.8 |
| 20260830170838 | 69 | 270 | 0.0 | 0.0 | 0.00 | 0.20 | 0.00 | 78 | 1054.8 |
| 20260830170724 | 69 | 270 | 0.0 | 0.0 | 0.00 | 0.20 | 0.00 | 78 | 1054.9 |
| 20260830170610 | 69 | 292 | 2.0 | 0.0 | 0.00 | 0.20 | 0.00 | 78 | 1054.9 |
| 20260830170458 | 69 | 270 | 2.0 | 0.0 | 0.00 | 0.20 | 0.00 | 78 | 1054.9 |
| 20260830170351 | 69 | 270 | 3.0 | 0.0 | 0.00 | 0.20 | 0.00 | 78 | 1054.9 |
| 20260830170240 | 69 | 247 | 0.0 | 0.0 | 0.00 | 0.20 | 0.00 | 78 | 1054.9 |
| 20260830170125 | 69 | 270 | 0.0 | 0.0 | 0.00 | 0.20 | 0.00 | 78 | 1054.9 |
| 20260830170013 | 69 | 292 | 3.0 | 0.0 | 0.00 | 0.20 | 0.00 | 78 | 1054.8 |
| 20260830165909 | 69 | 292 | 5.0 | 0.0 | 0.00 | 0.20 | 0.00 | 78 | 1054.8 |
| 20260830165801 | 69 | 247 | 0.0 | 0.0 | 0.00 | 0.20 | 0.00 | 78 | 1054.7 |
| 20260830165640 | 69 | 270 | 0.0 | 0.0 | 0.00 | 0.20 | 0.00 | 77 | 1054.8 |
| 20260830165529 | 69 | 270 | 0.0 | 0.0 | 0.00 | 0.20 | 0.00 | 77 | 1054.9 |
| 20260830165422 | 69 | 292 | 0.0 | 0.0 | 0.00 | 0.20 | 0.00 | 77 | 1054.9 |
| 20260830165317 | 69 | 315 | 3.0 | 0.0 | 0.00 | 0.20 | 0.00 | 77 | 1054.8 |
| 20260830165211 | 69 | 270 | 4.0 | 0.0 | 0.00 | 0.20 | 0.00 | 77 | 1054.8 |
| 20260830165050 | 69 | 292 | 4.0 | 0.0 | 0.00 | 0.20 | 0.00 | 77 | 1054.8 |
| 20260830164937 | 69 | 292 | 5.0 | 0.0 | 0.00 | 0.20 | 0.00 | 77 | 1054.8 |
| 20260830164824 | 69 | 292 | 5.0 | 0.0 | 0.00 | 0.20 | 0.00 | 77 | 1054.8 |
| 20260830164703 | 69 | 270 | 2.0 | 0.0 | 0.00 | 0.20 | 0.00 | 77 | 1054.8 |
| 20260830164552 | 69 | 292 | 0.0 | 0.0 | 0.00 | 0.20 | 0.00 | 77 | 1054.8 |
| 20260830164444 | 69 | 292 | 0.0 | 0.0 | 0.00 | 0.20 | 0.00 | 77 | 1054.8 |
| 20260830164324 | 70 | 270 | 2.0 | 0.0 | 0.00 | 0.20 | 0.00 | 77 | 1054.7 |
| 20260830164212 | 70 | 270 | 6.0 | 0.0 | 0.00 | 0.20 | 0.00 | 77 | 1054.7 |
| 20260830164057 | 70 | 292 | 4.0 | 0.0 | 0.00 | 0.20 | 0.00 | 77 | 1054.7 |
| 20260830163944 | 70 | 292 | 2.0 | 0.0 | 0.00 | 0.20 | 0.00 | 77 | 1054.6 |
| 20260830163830 | 70 | 270 | 2.0 | 0.0 | 0.00 | 0.20 | 0.00 | 77 | 1054.7 |
| 20260830163701 | 70 | 247 | 0.0 | 0.0 | 0.00 | 0.20 | 0.00 | 77 | 1054.7 |
| 20260830163542 | 70 | 270 | 3.0 | 0.0 | 0.00 | 0.20 | 0.00 | 77 | 1054.8 |
| 20260830163436 | 70 | 247 | 4.0 | 0.0 | 0.00 | 0.20 | 0.00 | 77 | 1054.8 |
| 20260830163325 | 70 | 270 | 3.0 | 0.0 | 0.00 | 0.20 | 0.00 | 77 | 1054.7 |
| 20260830163220 | 70 | 270 | 2.0 | 0.0 | 0.00 | 0.20 | 0.00 | 77 | 1054.8 |
| 20260830163112 | 70 | 270 | 0.0 | 0.0 | 0.00 | 0.20 | 0.00 | 77 | 1054.8 |
| 20260830162959 | 70 | 270 | 0.0 | 0.0 | 0.00 | 0.20 | 0.00 | 77 | 1054.7 |
| 20260830162846 | 70 | 225 | 0.0 | 0.0 | 0.00 | 0.20 | 0.00 | 76 | 1054.7 |
| 20260830162733 | 70 | 270 | 0.0 | 0.0 | 0.00 | 0.20 | 0.00 | 76 | 1054.7 |
| 20260830162619 | 70 | 270 | 0.0 | 0.0 | 0.00 | 0.20 | 0.00 | 76 | 1054.7 |
| 20260830162506 | 70 | 270 | 0.0 | 0.0 | 0.00 | 0.20 | 0.00 | 76 | 1054.7 |
| 20260830162353 | 70 | 202 | 0.0 | 0.0 | 0.00 | 0.20 | 0.00 | 76 | 1054.7 |
| 20260830162232 | 70 | 292 | 6.0 | 0.0 | 0.00 | 0.20 | 0.00 | 76 | 1054.7 |
| 20260830162119 | 70 | 270 | 0.0 | 0.0 | 0.00 | 0.20 | 0.00 | 76 | 1054.6 |
| 20260830161958 | 70 | 247 | 2.0 | 0.0 | 0.00 | 0.20 | 0.00 | 76 | 1054.7 |
| 20260830161853 | 70 | 270 | 0.0 | 0.0 | 0.00 | 0.20 | 0.00 | 76 | 1054.6 |
| 20260830161731 | 70 | 270 | 1.0 | 0.0 | 0.00 | 0.20 | 0.00 | 76 | 1054.7 |
| 20260830161620 | 70 | 292 | 3.0 | 0.0 | 0.00 | 0.20 | 0.00 | 76 | 1054.6 |
| 20260830161514 | 70 | 270 | 5.0 | 0.0 | 0.00 | 0.20 | 0.00 | 75 | 1054.6 |
| 20260830161352 | 70 | 292 | 3.0 | 0.0 | 0.00 | 0.20 | 0.00 | 75 | 1054.7 |
| 20260830161231 | 70 | 225 | 0.0 | 0.0 | 0.00 | 0.20 | 0.00 | 75 | 1054.7 |
| 20260830161110 | 70 | 292 | 3.0 | 0.0 | 0.00 | 0.20 | 0.00 | 75 | 1054.7 |
| 20260830161005 | 70 | 270 | 5.0 | 0.0 | 0.00 | 0.20 | 0.00 | 75 | 1054.7 |
| 20260830160851 | 70 | 292 | 0.0 | 0.0 | 0.00 | 0.20 | 0.00 | 75 | 1054.7 |
| 20260830160732 | 70 | 270 | 0.0 | 0.0 | 0.00 | 0.20 | 0.00 | 75 | 1054.6 |
| 20260830160625 | 70 | 270 | 0.0 | 0.0 | 0.00 | 0.20 | 0.00 | 75 | 1054.6 |
| 20260830160512 | 70 | 270 | 4.0 | 0.0 | 0.00 | 0.20 | 0.00 | 75 | 1054.6 |
| 20260830160400 | 71 | 292 | 5.0 | 0.0 | 0.00 | 0.20 | 0.00 | 75 | 1054.7 |
| 20260830160246 | 71 | 247 | 4.0 | 0.0 | 0.00 | 0.20 | 0.00 | 74 | 1054.6 |
| 20260830160124 | 71 | 225 | 3.0 | 0.0 | 0.00 | 0.20 | 0.00 | 74 | 1054.6 |
| 20260830160004 | 71 | 247 | 0.0 | 0.0 | 0.00 | 0.20 | 0.00 | 74 | 1054.7 |
| 20260830155900 | 71 | 292 | 0.0 | 0.0 | 0.00 | 0.20 | 0.00 | 74 | 1054.6 |
| 20260830155754 | 71 | 270 | 2.0 | 0.0 | 0.00 | 0.20 | 0.00 | 74 | 1054.6 |
| 20260830155640 | 71 | 270 | 0.0 | 0.0 | 0.00 | 0.20 | 0.00 | 74 | 1054.6 |
| 20260830155527 | 71 | 247 | 5.0 | 0.0 | 0.00 | 0.20 | 0.00 | 75 | 1054.6 |
| 20260830155414 | 71 | 247 | 2.0 | 0.0 | 0.00 | 0.20 | 0.00 | 75 | 1054.6 |
| 20260830155309 | 71 | 270 | 3.0 | 0.0 | 0.00 | 0.20 | 0.00 | 75 | 1054.6 |
| 20260830155150 | 71 | 247 | 6.0 | 0.0 | 0.00 | 0.20 | 0.00 | 76 | 1054.6 |
| 20260830155034 | 71 | 292 | 5.0 | 0.0 | 0.00 | 0.20 | 0.00 | 76 | 1054.6 |
| 20260830154924 | 70 | 270 | 4.0 | 0.0 | 0.00 | 0.20 | 0.00 | 77 | 1054.6 |
| 20260830154817 | 70 | 270 | 2.0 | 0.0 | 0.00 | 0.20 | 0.00 | 77 | 1054.5 |
| 20260830154713 | 70 | 292 | 0.0 | 0.0 | 0.00 | 0.20 | 0.00 | 76 | 1054.6 |
| 20260830154606 | 70 | 292 | 6.0 | 0.0 | 0.00 | 0.20 | 0.00 | 76 | 1054.7 |
| 20260830154436 | 70 | 270 | 4.0 | 0.0 | 0.00 | 0.20 | 0.00 | 76 | 1054.6 |
| 20260830154325 | 70 | 270 | 2.0 | 0.0 | 0.00 | 0.20 | 0.00 | 76 | 1054.7 |
| 20260830154219 | 70 | 270 | 5.0 | 0.0 | 0.00 | 0.20 | 0.00 | 76 | 1054.6 |
| 20260830154057 | 70 | 247 | 5.0 | 0.0 | 0.00 | 0.20 | 0.00 | 76 | 1054.5 |
| 20260830153944 | 70 | 292 | 6.0 | 0.0 | 0.00 | 0.20 | 0.00 | 76 | 1054.6 |
| 20260830153832 | 70 | 292 | 4.0 | 0.0 | 0.00 | 0.20 | 0.00 | 76 | 1054.6 |
| 20260830153718 | 70 | 337 | 4.0 | 0.0 | 0.00 | 0.20 | 0.00 | 76 | 1054.6 |
| 20260830153607 | 70 | 270 | 7.0 | 0.0 | 0.00 | 0.20 | 0.00 | 76 | 1054.5 |
| 20260830153452 | 70 | 270 | 5.0 | 0.0 | 0.00 | 0.20 | 0.00 | 75 | 1054.6 |
| 20260830153339 | 70 | 247 | 6.0 | 0.0 | 0.00 | 0.20 | 0.00 | 75 | 1054.5 |
| 20260830153219 | 70 | 270 | 4.0 | 0.0 | 0.00 | 0.20 | 0.00 | 75 | 1054.5 |
| 20260830153105 | 70 | 292 | 8.0 | 0.0 | 0.00 | 0.20 | 0.00 | 76 | 1054.6 |
| 20260830152952 | 70 | 292 | 0.0 | 0.0 | 0.00 | 0.20 | 0.00 | 76 | 1054.6 |
| 20260830152847 | 70 | 247 | 4.0 | 0.0 | 0.00 | 0.20 | 0.00 | 76 | 1054.7 |
| 20260830152727 | 70 | 270 | 4.0 | 0.0 | 0.00 | 0.20 | 0.00 | 75 | 1054.6 |
| 20260830152612 | 70 | 247 | 6.0 | 0.0 | 0.00 | 0.20 | 0.00 | 75 | 1054.7 |
| 20260830152451 | 70 | 292 | 4.0 | 0.0 | 0.00 | 0.20 | 0.00 | 75 | 1054.8 |
| 20260830152329 | 71 | 270 | 4.0 | 0.0 | 0.00 | 0.20 | 0.00 | 75 | 1054.7 |
| 20260830152210 | 71 | 270 | 2.0 | 0.0 | 0.00 | 0.20 | 0.00 | 75 | 1054.7 |
| 20260830152057 | 71 | 315 | 0.0 | 0.0 | 0.00 | 0.20 | 0.00 | 74 | 1054.8 |